Time,TemperatureF,DewpointF,PressureIn,WindDirection,WindDirectionDegrees,WindSpeedMPH,WindSpeedGustMPH,Humidity,HourlyPrecipIn,Conditions,Clouds,dailyrainin,SoftwareType,DateUTC
2013-04-18 00:00:00,36.2,33.0,30.04,ENE,59,0.0,0.0,88,0.02,,OVC044,0.00,VWS V14.01,2013-04-18 04:00:00,
2013-04-18 00:01:00,0.0,-2.7,30.04,North,0,0.0,0.0,88,0.02,,OVC044,0.00,VWS V14.01,2013-04-18 04:01:00,
2013-04-18 00:02:00,36.0,33.9,29.99,NE,49,0.0,0.0,92,0.00,,,0.01,Wunderground v.1.15,2013-04-18 04:02:00,
2013-04-18 00:03:00,36.0,33.9,29.99,ENE,69,0.0,0.0,92,0.00,,,0.01,Wunderground v.1.15,2013-04-18 04:03:00,
2013-04-18 00:04:00,36.0,33.9,29.99,NE,41,0.0,4.0,92,0.00,,,0.01,Wunderground v.1.15,2013-04-18 04:04:00,
2013-04-18 00:05:00,36.2,33.0,30.04,North,0,0.0,0.0,88,0.02,,OVC044,0.00,VWS V14.01,2013-04-18 04:05:00,
2013-04-18 00:06:00,36.2,33.0,30.04,North,0,0.0,0.0,88,0.02,,OVC044,0.00,VWS V14.01,2013-04-18 04:06:00,
2013-04-18 00:07:00,36.2,33.0,30.04,North,0,0.0,0.0,88,0.03,,OVC044,0.01,VWS V14.01,2013-04-18 04:07:00,
2013-04-18 00:08:00,35.9,34.1,29.99,NE,48,1.0,4.0,93,0.00,,,0.01,Wunderground v.1.15,2013-04-18 04:08:00,
2013-04-18 00:09:00,36.2,33.0,30.04,ENE,68,0.0,1.0,88,0.01,,OVC044,0.01,VWS V14.01,2013-04-18 04:09:00,
2013-04-18 00:10:00,36.2,33.0,30.04,NNE,22,0.0,2.0,88,0.01,,OVC044,0.01,VWS V14.01,2013-04-18 04:10:00,
2013-04-18 00:11:00,36.2,33.0,30.04,NNE,22,0.0,0.0,88,0.01,,OVC044,0.01,VWS V14.01,2013-04-18 04:11:00,
2013-04-18 00:12:00,36.2,33.0,30.04,NNE,22,0.0,0.0,88,0.01,,OVC044,0.01,VWS V14.01,2013-04-18 04:12:00,
2013-04-18 00:13:00,36.2,33.0,30.04,NNE,22,0.0,0.0,88,0.01,,OVC044,0.01,VWS V14.01,2013-04-18 04:13:00,
2013-04-18 00:14:00,35.9,34.1,29.98,NE,40,2.0,2.0,93,0.00,,,0.01,Wunderground v.1.15,2013-04-18 04:14:00,
2013-04-18 00:15:00,36.2,33.0,30.01,NNE,22,0.0,0.0,88,0.01,,OVC044,0.01,VWS V14.01,2013-04-18 04:15:00,
2013-04-18 00:16:00,36.2,33.0,30.01,NNE,22,0.0,0.0,88,0.01,,OVC044,0.01,VWS V14.01,2013-04-18 04:16:00,
2013-04-18 00:17:00,36.2,33.0,30.01,NNE,22,0.0,0.0,88,0.01,,OVC044,0.01,VWS V14.01,2013-04-18 04:17:00,
2013-04-18 00:18:00,36.2,33.0,30.01,NNE,22,0.0,0.0,88,0.01,,OVC044,0.01,VWS V14.01,2013-04-18 04:18:00,
2013-04-18 00:19:00,36.0,34.4,29.98,NE,47,1.0,5.0,94,0.00,,,0.02,Wunderground v.1.15,2013-04-18 04:19:00,
2013-04-18 00:20:00,36.0,34.4,29.98,ENE,76,1.0,5.0,94,0.00,,,0.02,Wunderground v.1.15,2013-04-18 04:20:00,
2013-04-18 00:21:00,36.2,33.0,30.01,NNE,22,0.0,0.0,88,0.01,,OVC044,0.01,VWS V14.01,2013-04-18 04:21:00,
2013-04-18 00:22:00,36.2,33.0,30.01,NNE,22,0.0,0.0,88,0.01,,OVC044,0.01,VWS V14.01,2013-04-18 04:22:00,
2013-04-18 00:23:00,36.2,33.0,30.01,NNE,22,0.0,0.0,88,0.01,,OVC044,0.01,VWS V14.01,2013-04-18 04:23:00,
2013-04-18 00:24:00,36.2,33.0,30.01,NNE,22,0.0,0.0,88,0.01,,OVC044,0.01,VWS V14.01,2013-04-18 04:24:00,
2013-04-18 00:25:00,36.0,34.4,29.98,NE,37,1.0,6.0,94,0.00,,,0.02,Wunderground v.1.15,2013-04-18 04:25:00,
2013-04-18 00:26:00,36.2,33.0,30.01,NNE,22,0.0,0.0,88,0.01,,OVC044,0.01,VWS V14.01,2013-04-18 04:26:00,
2013-04-18 00:27:00,36.2,33.0,30.01,NNE,22,0.0,0.0,88,0.01,,OVC044,0.01,VWS V14.01,2013-04-18 04:27:00,
2013-04-18 00:28:00,36.2,33.0,30.01,NNE,22,0.0,0.0,88,0.01,,OVC044,0.01,VWS V14.01,2013-04-18 04:28:00,
2013-04-18 00:29:00,36.2,33.0,30.01,NNE,22,0.0,0.0,88,0.01,,OVC044,0.01,VWS V14.01,2013-04-18 04:29:00,
2013-04-18 00:30:00,36.0,32.8,30.01,NNE,22,0.0,0.0,88,0.01,,OVC044,0.01,VWS V14.01,2013-04-18 04:30:00,
2013-04-18 00:31:00,36.0,34.7,29.97,ENE,76,1.0,3.0,95,0.00,,,0.02,Wunderground v.1.15,2013-04-18 04:31:00,
2013-04-18 00:32:00,36.0,32.8,30.01,NNE,22,0.0,0.0,88,0.01,,OVC044,0.01,VWS V14.01,2013-04-18 04:32:00,
2013-04-18 00:33:00,36.0,32.8,30.01,NNE,22,0.0,0.0,88,0.01,,OVC044,0.01,VWS V14.01,2013-04-18 04:33:00,
2013-04-18 00:34:00,36.0,33.1,30.01,NE,45,3.0,7.0,89,0.01,,OVC044,0.01,VWS V14.01,2013-04-18 04:34:00,
2013-04-18 00:35:00,36.0,33.1,30.01,NE,45,0.0,0.0,89,0.01,,OVC044,0.01,VWS V14.01,2013-04-18 04:35:00,
2013-04-18 00:36:00,36.0,33.1,30.01,NE,45,0.0,0.0,89,0.01,,OVC044,0.01,VWS V14.01,2013-04-18 04:36:00,
2013-04-18 00:37:00,36.0,33.1,30.01,NE,45,0.0,0.0,89,0.01,,OVC044,0.01,VWS V14.01,2013-04-18 04:37:00,
2013-04-18 00:38:00,36.0,34.7,29.97,ESE,109,1.0,4.0,95,0.00,,,0.02,Wunderground v.1.15,2013-04-18 04:38:00,
2013-04-18 00:39:00,36.0,33.4,30.01,NE,45,0.0,0.0,90,0.01,,OVC044,0.01,VWS V14.01,2013-04-18 04:39:00,
2013-04-18 00:40:00,36.0,33.4,30.01,NE,45,0.0,0.0,90,0.01,,OVC044,0.01,VWS V14.01,2013-04-18 04:40:00,
2013-04-18 00:41:00,36.0,33.4,30.01,NE,45,0.0,2.0,90,0.01,,OVC044,0.01,VWS V14.01,2013-04-18 04:41:00,
2013-04-18 00:42:00,36.0,33.4,30.01,NE,45,1.0,2.0,90,0.01,,OVC044,0.01,VWS V14.01,2013-04-18 04:42:00,
2013-04-18 00:43:00,36.0,34.7,29.97,NNE,27,2.0,3.0,95,0.00,,,0.02,Wunderground v.1.15,2013-04-18 04:43:00,
2013-04-18 00:44:00,36.0,33.4,30.01,NE,45,0.0,0.0,90,0.01,,OVC044,0.01,VWS V14.01,2013-04-18 04:44:00,
2013-04-18 00:45:00,36.0,33.4,30.01,NE,45,0.0,0.0,90,0.01,,OVC044,0.01,VWS V14.01,2013-04-18 04:45:00,
2013-04-18 00:46:00,36.0,33.4,30.01,NE,45,0.0,0.0,90,0.01,,OVC044,0.01,VWS V14.01,2013-04-18 04:46:00,
2013-04-18 00:47:00,36.0,33.4,30.01,NE,45,0.0,0.0,90,0.01,,OVC044,0.01,VWS V14.01,2013-04-18 04:47:00,
2013-04-18 00:48:00,36.2,35.2,29.95,ENE,68,2.0,3.0,96,0.00,,,0.02,Wunderground v.1.15,2013-04-18 04:48:00,
2013-04-18 00:49:00,36.0,33.6,30.01,NE,45,0.0,0.0,91,0.01,,OVC044,0.01,VWS V14.01,2013-04-18 04:49:00,
2013-04-18 00:50:00,36.0,33.6,30.01,NE,45,0.0,0.0,91,0.01,,OVC044,0.01,VWS V14.01,2013-04-18 04:50:00,
2013-04-18 00:51:00,36.0,33.6,30.01,NE,45,0.0,0.0,91,0.01,,OVC044,0.01,VWS V14.01,2013-04-18 04:51:00,
2013-04-18 00:52:00,36.0,33.6,30.01,NE,45,1.0,5.0,91,0.01,,OVC044,0.01,VWS V14.01,2013-04-18 04:52:00,
2013-04-18 00:53:00,36.2,35.2,29.95,NNE,31,1.0,1.0,96,0.00,,,0.02,Wunderground v.1.15,2013-04-18 04:53:00,
2013-04-18 00:54:00,36.0,33.6,30.01,NE,45,0.0,0.0,91,0.01,,OVC044,0.01,VWS V14.01,2013-04-18 04:54:00,
2013-04-18 00:55:00,36.0,33.9,30.01,NE,45,0.0,0.0,92,0.01,,OVC044,0.01,VWS V14.01,2013-04-18 04:55:00,
2013-04-18 00:56:00,36.0,33.9,30.01,NE,45,0.0,0.0,92,0.01,,OVC044,0.01,VWS V14.01,2013-04-18 04:56:00,
2013-04-18 00:57:00,36.0,33.9,30.01,NE,45,0.0,0.0,92,0.01,,OVC044,0.01,VWS V14.01,2013-04-18 04:57:00,
2013-04-18 00:58:00,36.0,33.9,30.01,NE,45,0.0,0.0,92,0.01,,OVC044,0.01,VWS V14.01,2013-04-18 04:58:00,
2013-04-18 00:59:00,36.2,35.2,29.94,East,89,1.0,1.0,96,0.00,,,0.02,Wunderground v.1.15,2013-04-18 04:59:00,
2013-04-18 01:00:00,36.0,33.9,29.99,NE,45,0.0,0.0,92,0.01,,OVC044,0.01,VWS V14.01,2013-04-18 05:00:00,
2013-04-18 01:01:00,36.0,33.9,29.99,ENE,68,0.0,2.0,92,0.01,,OVC044,0.01,VWS V14.01,2013-04-18 05:01:00,
2013-04-18 01:02:00,36.0,33.9,29.99,ENE,68,0.0,0.0,92,0.01,,OVC044,0.01,VWS V14.01,2013-04-18 05:02:00,
2013-04-18 01:03:00,36.0,33.9,29.99,ENE,68,0.0,0.0,92,0.01,,OVC044,0.01,VWS V14.01,2013-04-18 05:03:00,
2013-04-18 01:04:00,36.2,35.2,29.94,NE,41,3.0,3.0,96,0.00,,,0.02,Wunderground v.1.15,2013-04-18 05:04:00,
2013-04-18 01:05:00,35.9,34.1,29.99,NNE,22,3.0,6.0,93,0.01,,OVC044,0.01,VWS V14.01,2013-04-18 05:05:00,
2013-04-18 01:06:00,35.9,34.1,29.99,NNE,22,2.0,3.0,93,0.01,,OVC044,0.01,VWS V14.01,2013-04-18 05:06:00,
2013-04-18 01:07:00,35.9,34.1,29.99,NNE,22,0.0,0.0,93,0.01,,OVC044,0.01,VWS V14.01,2013-04-18 05:07:00,
2013-04-18 01:08:00,35.9,34.1,29.99,NE,45,2.0,2.0,93,0.00,,OVC044,0.01,VWS V14.01,2013-04-18 05:08:00,
2013-04-18 01:09:00,36.2,35.4,29.94,ENE,76,1.0,1.0,97,0.00,,,0.02,Wunderground v.1.15,2013-04-18 05:09:00,
2013-04-18 01:10:00,35.9,34.1,29.99,East,90,0.0,3.0,93,0.00,,OVC044,0.01,VWS V14.01,2013-04-18 05:10:00,
2013-04-18 01:11:00,35.9,34.1,29.99,NE,45,2.0,7.0,93,0.00,,OVC044,0.01,VWS V14.01,2013-04-18 05:11:00,
2013-04-18 01:12:00,35.9,34.1,29.99,North,0,2.0,5.0,93,0.00,,OVC044,0.01,VWS V14.01,2013-04-18 05:12:00,
2013-04-18 01:13:00,35.9,34.1,29.99,NE,45,1.0,2.0,93,0.00,,OVC044,0.01,VWS V14.01,2013-04-18 05:13:00,
2013-04-18 01:14:00,35.9,34.1,29.99,NE,45,1.0,0.0,93,0.00,,OVC044,0.01,VWS V14.01,2013-04-18 05:14:00,
2013-04-18 01:15:00,36.2,35.4,29.93,East,86,0.0,1.0,97,0.00,,,0.02,Wunderground v.1.15,2013-04-18 05:15:00,
2013-04-18 01:16:00,35.9,34.1,29.98,NE,45,0.0,0.0,93,0.00,,OVC044,0.01,VWS V14.01,2013-04-18 05:16:00,
2013-04-18 01:17:00,36.0,34.2,29.98,NE,45,0.0,0.0,93,0.00,,OVC044,0.01,VWS V14.01,2013-04-18 05:17:00,
2013-04-18 01:18:00,36.0,34.2,29.98,NE,45,0.0,0.0,93,0.01,,OVC044,0.02,VWS V14.01,2013-04-18 05:18:00,
2013-04-18 01:19:00,36.0,34.4,29.98,NE,45,2.0,7.0,94,0.01,,OVC044,0.02,VWS V14.01,2013-04-18 05:19:00,
2013-04-18 01:20:00,36.3,35.5,29.93,NE,45,1.0,2.0,97,0.00,,,0.02,Wunderground v.1.15,2013-04-18 05:20:00,
2013-04-18 01:21:00,36.0,34.4,29.98,ENE,68,1.0,3.0,94,0.01,,OVC044,0.02,VWS V14.01,2013-04-18 05:21:00,
2013-04-18 01:22:00,36.0,34.4,29.98,ENE,68,0.0,0.0,94,0.01,,OVC044,0.02,VWS V14.01,2013-04-18 05:22:00,
2013-04-18 01:23:00,36.0,34.4,29.98,ENE,68,0.0,0.0,94,0.01,,OVC044,0.02,VWS V14.01,2013-04-18 05:23:00,
2013-04-18 01:24:00,36.0,34.4,29.98,ENE,68,6.0,8.0,94,0.01,,OVC044,0.02,VWS V14.01,2013-04-18 05:24:00,
2013-04-18 01:25:00,36.3,35.5,29.93,NE,48,1.0,2.0,97,0.00,,,0.02,Wunderground v.1.15,2013-04-18 05:25:00,
2013-04-18 01:26:00,36.0,34.4,29.98,NNE,22,0.0,0.0,94,0.01,,OVC044,0.02,VWS V14.01,2013-04-18 05:26:00,
2013-04-18 01:27:00,36.0,34.4,29.98,NE,45,1.0,6.0,94,0.01,,OVC044,0.02,VWS V14.01,2013-04-18 05:27:00,
2013-04-18 01:28:00,36.0,34.4,29.98,East,90,5.0,5.0,94,0.01,,OVC044,0.02,VWS V14.01,2013-04-18 05:28:00,
2013-04-18 01:29:00,36.0,34.4,29.98,East,90,0.0,0.0,94,0.01,,OVC044,0.02,VWS V14.01,2013-04-18 05:29:00,
2013-04-18 01:30:00,36.5,35.7,29.92,East,83,1.0,7.0,97,0.00,,,0.02,Wunderground v.1.15,2013-04-18 05:30:00,
2013-04-18 01:31:00,36.0,34.7,29.97,East,90,0.0,0.0,95,0.01,,OVC044,0.02,VWS V14.01,2013-04-18 05:31:00,
2013-04-18 01:32:00,36.0,34.7,29.97,ENE,68,2.0,4.0,95,0.01,,OVC044,0.02,VWS V14.01,2013-04-18 05:32:00,
2013-04-18 01:33:00,36.0,34.7,29.97,ENE,68,0.0,0.0,95,0.01,,OVC044,0.02,VWS V14.01,2013-04-18 05:33:00,
2013-04-18 01:34:00,36.0,34.7,29.97,ENE,68,0.0,0.0,95,0.01,,OVC044,0.02,VWS V14.01,2013-04-18 05:34:00,
2013-04-18 01:35:00,36.0,34.7,29.97,ENE,68,2.0,6.0,95,0.01,,OVC044,0.02,VWS V14.01,2013-04-18 05:35:00,
2013-04-18 01:36:00,36.5,35.7,29.92,NE,55,1.0,7.0,97,0.00,,,0.02,Wunderground v.1.15,2013-04-18 05:36:00,
2013-04-18 01:37:00,36.0,34.7,29.97,NNE,22,2.0,4.0,95,0.01,,OVC044,0.02,VWS V14.01,2013-04-18 05:37:00,
2013-04-18 01:38:00,36.0,34.7,29.97,North,0,3.0,4.0,95,0.01,,OVC044,0.02,VWS V14.01,2013-04-18 05:38:00,
2013-04-18 01:39:00,36.0,34.7,29.97,East,90,6.0,8.0,95,0.01,,OVC044,0.02,VWS V14.01,2013-04-18 05:39:00,
2013-04-18 01:40:00,36.0,34.7,29.97,NE,45,1.0,3.0,95,0.01,,OVC044,0.02,VWS V14.01,2013-04-18 05:40:00,
2013-04-18 01:41:00,36.0,34.7,29.97,NE,45,0.0,0.0,95,0.01,,OVC044,0.02,VWS V14.01,2013-04-18 05:41:00,
2013-04-18 01:42:00,36.6,36.1,29.92,ENE,59,1.0,4.0,98,0.00,,,0.02,Wunderground v.1.15,2013-04-18 05:42:00,
2013-04-18 01:43:00,36.0,34.7,29.97,NE,45,0.0,0.0,95,0.01,,OVC044,0.02,VWS V14.01,2013-04-18 05:43:00,
2013-04-18 01:44:00,36.0,34.7,29.97,ENE,68,7.0,8.0,95,0.01,,OVC044,0.02,VWS V14.01,2013-04-18 05:44:00,
2013-04-18 01:45:00,36.2,35.2,29.95,ENE,68,1.0,2.0,96,0.01,,OVC044,0.02,VWS V14.01,2013-04-18 05:45:00,
2013-04-18 01:46:00,36.2,35.2,29.95,NE,45,1.0,5.0,96,0.01,,OVC044,0.02,VWS V14.01,2013-04-18 05:46:00,
2013-04-18 01:47:00,36.2,35.2,29.95,NE,45,0.0,0.0,96,0.01,,OVC044,0.02,VWS V14.01,2013-04-18 05:47:00,
2013-04-18 01:48:00,36.6,36.1,29.91,NNE,30,1.0,4.0,98,0.00,,,0.02,Wunderground v.1.15,2013-04-18 05:48:00,
2013-04-18 01:49:00,36.2,35.2,29.95,NE,45,0.0,0.0,96,0.01,,OVC044,0.02,VWS V14.01,2013-04-18 05:49:00,
2013-04-18 01:50:00,36.2,35.2,29.95,NE,45,0.0,0.0,96,0.01,,OVC044,0.02,VWS V14.01,2013-04-18 05:50:00,
2013-04-18 01:51:00,36.2,35.2,29.95,NE,45,0.0,0.0,96,0.01,,OVC044,0.02,VWS V14.01,2013-04-18 05:51:00,
2013-04-18 01:52:00,36.2,35.2,29.95,NE,45,0.0,0.0,96,0.01,,OVC044,0.02,VWS V14.01,2013-04-18 05:52:00,
2013-04-18 01:53:00,36.6,36.1,29.91,NNE,27,0.0,1.0,98,0.00,,,0.02,Wunderground v.1.15,2013-04-18 05:53:00,
2013-04-18 01:54:00,36.2,35.2,29.95,NNE,22,0.0,1.0,96,0.01,,OVC044,0.02,VWS V14.01,2013-04-18 05:54:00,
2013-04-18 01:55:00,36.2,35.2,29.95,ENE,68,3.0,7.0,96,0.01,,OVC044,0.02,VWS V14.01,2013-04-18 05:55:00,
2013-04-18 01:56:00,36.2,35.2,29.95,ENE,68,2.0,7.0,96,0.01,,OVC044,0.02,VWS V14.01,2013-04-18 05:56:00,
2013-04-18 01:57:00,36.2,35.2,29.95,East,90,4.0,7.0,96,0.01,,OVC044,0.02,VWS V14.01,2013-04-18 05:57:00,
2013-04-18 01:58:00,36.2,35.2,29.95,East,90,4.0,0.0,96,0.01,,OVC044,0.02,VWS V14.01,2013-04-18 05:58:00,
2013-04-18 01:59:00,36.8,36.3,29.90,NE,51,0.0,0.0,98,0.00,,,0.02,Wunderground v.1.15,2013-04-18 05:59:00,
2013-04-18 02:00:00,36.2,35.2,29.94,NE,45,7.0,7.0,96,0.01,,OVC044,0.02,VWS V14.01,2013-04-18 06:00:00,
2013-04-18 02:01:00,36.2,35.2,29.94,NE,45,5.0,7.0,96,0.01,,OVC044,0.02,VWS V14.01,2013-04-18 06:01:00,
2013-04-18 02:02:00,36.2,35.2,29.94,NE,45,2.0,4.0,96,0.01,,OVC044,0.02,VWS V14.01,2013-04-18 06:02:00,
2013-04-18 02:03:00,36.2,35.2,29.94,NE,45,0.0,0.0,96,0.01,,OVC044,0.02,VWS V14.01,2013-04-18 06:03:00,
2013-04-18 02:04:00,36.8,36.5,29.90,NE,45,0.0,0.0,99,0.00,,,0.02,Wunderground v.1.15,2013-04-18 06:04:00,
2013-04-18 02:05:00,36.2,35.4,29.94,NE,45,0.0,0.0,97,0.01,,OVC044,0.02,VWS V14.01,2013-04-18 06:05:00,
2013-04-18 02:06:00,36.2,35.4,29.94,NE,45,0.0,0.0,97,0.01,,OVC044,0.02,VWS V14.01,2013-04-18 06:06:00,
2013-04-18 02:07:00,36.2,35.4,29.94,NE,45,0.0,0.0,97,0.01,,OVC044,0.02,VWS V14.01,2013-04-18 06:07:00,
2013-04-18 02:08:00,36.2,35.4,29.94,NE,45,0.0,0.0,97,0.01,,OVC044,0.02,VWS V14.01,2013-04-18 06:08:00,
2013-04-18 02:09:00,36.2,35.4,29.94,NE,45,0.0,0.0,97,0.01,,OVC044,0.02,VWS V14.01,2013-04-18 06:09:00,
2013-04-18 02:10:00,36.9,36.6,29.90,NE,44,0.0,0.0,99,0.00,,,0.02,Wunderground v.1.15,2013-04-18 06:10:00,
2013-04-18 02:11:00,36.2,35.4,29.94,NE,45,0.0,0.0,97,0.01,,OVC044,0.02,VWS V14.01,2013-04-18 06:11:00,
2013-04-18 02:12:00,36.2,35.4,29.94,NE,45,0.0,0.0,97,0.01,,OVC044,0.02,VWS V14.01,2013-04-18 06:12:00,
2013-04-18 02:13:00,36.2,35.4,29.94,NE,45,0.0,0.0,97,0.01,,OVC044,0.02,VWS V14.01,2013-04-18 06:13:00,
2013-04-18 02:14:00,36.2,35.4,29.94,NE,45,0.0,0.0,97,0.01,,OVC044,0.02,VWS V14.01,2013-04-18 06:14:00,
2013-04-18 02:15:00,36.9,36.6,29.88,NNE,20,0.0,0.0,99,0.00,,,0.02,Wunderground v.1.15,2013-04-18 06:15:00,
2013-04-18 02:16:00,36.2,35.4,29.93,NE,45,0.0,0.0,97,0.01,,OVC044,0.02,VWS V14.01,2013-04-18 06:16:00,
2013-04-18 02:17:00,36.2,35.4,29.93,NE,45,0.0,0.0,97,0.01,,OVC044,0.02,VWS V14.01,2013-04-18 06:17:00,
2013-04-18 02:18:00,36.2,35.4,29.93,NE,45,0.0,0.0,97,0.01,,OVC044,0.02,VWS V14.01,2013-04-18 06:18:00,
2013-04-18 02:19:00,36.3,35.5,29.93,NE,45,4.0,5.0,97,0.00,,OVC044,0.02,VWS V14.01,2013-04-18 06:19:00,
2013-04-18 02:20:00,36.3,35.5,29.93,NE,45,1.0,2.0,97,0.00,,OVC044,0.02,VWS V14.01,2013-04-18 06:20:00,
2013-04-18 02:21:00,37.0,36.7,29.88,NNE,24,1.0,7.0,99,0.00,,,0.02,Wunderground v.1.15,2013-04-18 06:21:00,
2013-04-18 02:22:00,36.3,35.5,29.93,NE,45,0.0,0.0,97,0.00,,OVC044,0.02,VWS V14.01,2013-04-18 06:22:00,
2013-04-18 02:23:00,36.3,35.5,29.93,NNE,22,1.0,3.0,97,0.00,,OVC044,0.02,VWS V14.01,2013-04-18 06:23:00,
2013-04-18 02:24:00,36.3,35.5,29.93,NNE,22,1.0,3.0,97,0.00,,OVC044,0.02,VWS V14.01,2013-04-18 06:24:00,
2013-04-18 02:25:00,36.3,35.5,29.93,NNE,22,0.0,0.0,97,0.00,,OVC044,0.02,VWS V14.01,2013-04-18 06:25:00,
2013-04-18 02:26:00,37.2,36.9,29.88,NE,56,1.0,7.0,99,0.00,,,0.02,Wunderground v.1.15,2013-04-18 06:26:00,
2013-04-18 02:27:00,36.3,35.5,29.93,NNE,22,0.0,0.0,97,0.00,,OVC044,0.02,VWS V14.01,2013-04-18 06:27:00,
2013-04-18 02:28:00,36.3,35.5,29.93,ENE,68,2.0,5.0,97,0.00,,OVC044,0.02,VWS V14.01,2013-04-18 06:28:00,
2013-04-18 02:29:00,36.5,35.7,29.93,ENE,68,3.0,5.0,97,0.00,,OVC044,0.02,VWS V14.01,2013-04-18 06:29:00,
2013-04-18 02:30:00,36.5,35.7,29.92,ENE,68,3.0,7.0,97,0.00,,OVC044,0.02,VWS V14.01,2013-04-18 06:30:00,
2013-04-18 02:31:00,36.5,35.7,29.92,ENE,68,0.0,1.0,97,0.00,,OVC044,0.02,VWS V14.01,2013-04-18 06:31:00,
2013-04-18 02:32:00,36.5,35.7,29.92,ENE,68,0.0,0.0,97,0.00,,OVC044,0.02,VWS V14.01,2013-04-18 06:32:00,
2013-04-18 02:33:00,37.3,37.0,29.87,NNE,32,0.0,5.0,99,0.00,,,0.02,Wunderground v.1.15,2013-04-18 06:33:00,
2013-04-18 02:34:00,36.5,35.7,29.92,NE,45,2.0,5.0,97,0.00,,OVC044,0.02,VWS V14.01,2013-04-18 06:34:00,
2013-04-18 02:35:00,36.5,35.7,29.92,ENE,68,2.0,3.0,97,0.00,,OVC044,0.02,VWS V14.01,2013-04-18 06:35:00,
2013-04-18 02:36:00,36.5,35.7,29.92,ENE,68,0.0,0.0,97,0.00,,OVC044,0.02,VWS V14.01,2013-04-18 06:36:00,
2013-04-18 02:37:00,36.5,35.7,29.92,ENE,68,0.0,0.0,97,0.00,,OVC044,0.02,VWS V14.01,2013-04-18 06:37:00,
2013-04-18 02:38:00,37.3,37.0,29.87,NE,44,0.0,5.0,99,0.00,,,0.02,Wunderground v.1.15,2013-04-18 06:38:00,
2013-04-18 02:39:00,36.6,36.1,29.92,ENE,68,1.0,6.0,98,0.00,,OVC044,0.02,VWS V14.01,2013-04-18 06:39:00,
2013-04-18 02:40:00,36.6,36.1,29.92,NE,45,2.0,5.0,98,0.00,,OVC044,0.02,VWS V14.01,2013-04-18 06:40:00,
2013-04-18 02:41:00,36.6,36.1,29.92,NE,45,0.0,0.0,98,0.00,,OVC044,0.02,VWS V14.01,2013-04-18 06:41:00,
2013-04-18 02:42:00,36.6,36.1,29.92,NE,45,0.0,0.0,98,0.00,,OVC044,0.02,VWS V14.01,2013-04-18 06:42:00,
2013-04-18 02:43:00,37.3,37.0,29.87,NNE,30,1.0,7.0,99,0.00,,,0.02,Wunderground v.1.15,2013-04-18 06:43:00,
2013-04-18 02:44:00,36.6,36.1,29.92,NNE,22,2.0,0.0,98,0.00,,OVC044,0.02,VWS V14.01,2013-04-18 06:44:00,
2013-04-18 02:45:00,36.6,36.1,29.91,NNE,22,0.0,0.0,98,0.00,,OVC044,0.02,VWS V14.01,2013-04-18 06:45:00,
2013-04-18 02:46:00,36.6,36.1,29.91,NNE,22,0.0,0.0,98,0.00,,OVC044,0.02,VWS V14.01,2013-04-18 06:46:00,
2013-04-18 02:47:00,36.6,36.1,29.91,NNE,22,0.0,0.0,98,0.00,,OVC044,0.02,VWS V14.01,2013-04-18 06:47:00,
2013-04-18 02:48:00,36.6,36.1,29.91,NNE,22,0.0,0.0,98,0.00,,OVC044,0.02,VWS V14.01,2013-04-18 06:48:00,
2013-04-18 02:49:00,37.6,37.3,29.86,ENE,61,2.0,2.0,99,0.00,,,0.02,Wunderground v.1.15,2013-04-18 06:49:00,
2013-04-18 02:50:00,36.6,36.1,29.91,NNE,22,0.0,0.0,98,0.00,,OVC044,0.02,VWS V14.01,2013-04-18 06:50:00,
2013-04-18 02:51:00,36.6,36.1,29.91,NNE,22,1.0,3.0,98,0.00,,OVC044,0.02,VWS V14.01,2013-04-18 06:51:00,
2013-04-18 02:52:00,36.6,36.1,29.91,NE,45,0.0,2.0,98,0.00,,OVC044,0.02,VWS V14.01,2013-04-18 06:52:00,
2013-04-18 02:53:00,36.6,36.1,29.91,NE,45,0.0,0.0,98,0.00,,OVC044,0.02,VWS V14.01,2013-04-18 06:53:00,
2013-04-18 02:54:00,36.6,36.1,29.91,NE,45,0.0,0.0,98,0.00,,OVC044,0.02,VWS V14.01,2013-04-18 06:54:00,
2013-04-18 02:55:00,37.6,37.3,29.86,East,83,2.0,5.0,99,0.00,,,0.02,Wunderground v.1.15,2013-04-18 06:55:00,
2013-04-18 02:56:00,36.6,36.1,29.91,NE,45,0.0,0.0,98,0.00,,OVC044,0.02,VWS V14.01,2013-04-18 06:56:00,
2013-04-18 02:57:00,36.6,36.1,29.91,NE,45,0.0,0.0,98,0.00,,OVC044,0.02,VWS V14.01,2013-04-18 06:57:00,
2013-04-18 02:58:00,36.6,36.1,29.91,NE,45,0.0,0.0,98,0.00,,OVC044,0.02,VWS V14.01,2013-04-18 06:58:00,
2013-04-18 02:59:00,36.6,36.1,29.91,NE,45,0.0,0.0,98,0.00,,OVC044,0.02,VWS V14.01,2013-04-18 06:59:00,
2013-04-18 03:00:00,36.8,36.3,29.90,NE,45,0.0,0.0,98,0.00,,OVC044,0.02,VWS V14.01,2013-04-18 07:00:00,
2013-04-18 03:01:00,36.8,36.3,29.90,NE,45,0.0,0.0,98,0.00,,OVC044,0.02,VWS V14.01,2013-04-18 07:01:00,
2013-04-18 03:02:00,37.8,37.5,29.83,NE,45,2.0,2.0,99,0.00,,,0.02,Wunderground v.1.15,2013-04-18 07:02:00,
2013-04-18 03:03:00,36.8,36.3,29.90,NE,45,0.0,0.0,98,0.00,,OVC044,0.02,VWS V14.01,2013-04-18 07:03:00,
2013-04-18 03:04:00,36.8,36.5,29.90,NE,45,0.0,0.0,99,0.00,,OVC044,0.02,VWS V14.01,2013-04-18 07:04:00,
2013-04-18 03:05:00,36.8,36.5,29.90,NE,45,0.0,0.0,99,0.00,,OVC044,0.02,VWS V14.01,2013-04-18 07:05:00,
2013-04-18 03:06:00,36.8,36.5,29.90,NE,45,0.0,0.0,99,0.00,,OVC044,0.02,VWS V14.01,2013-04-18 07:06:00,
2013-04-18 03:07:00,36.8,36.5,29.90,NE,45,0.0,0.0,99,0.00,,OVC044,0.02,VWS V14.01,2013-04-18 07:07:00,
2013-04-18 03:08:00,37.9,37.6,29.83,NE,52,1.0,6.0,99,0.00,,,0.02,Wunderground v.1.15,2013-04-18 07:08:00,
2013-04-18 03:09:00,36.9,36.7,29.90,ENE,68,1.0,3.0,99,0.00,,OVC044,0.02,VWS V14.01,2013-04-18 07:09:00,
2013-04-18 03:10:00,36.9,36.7,29.90,East,90,2.0,5.0,99,0.00,,OVC044,0.02,VWS V14.01,2013-04-18 07:10:00,
2013-04-18 03:11:00,36.9,36.7,29.90,East,90,0.0,0.0,99,0.00,,OVC044,0.02,VWS V14.01,2013-04-18 07:11:00,
2013-04-18 03:12:00,36.9,36.7,29.90,East,90,0.0,0.0,99,0.00,,OVC044,0.02,VWS V14.01,2013-04-18 07:12:00,
2013-04-18 03:13:00,38.0,37.7,29.83,ENE,78,0.0,1.0,99,0.00,,,0.02,Wunderground v.1.15,2013-04-18 07:13:00,
2013-04-18 03:14:00,36.9,36.7,29.90,East,90,0.0,0.0,99,0.00,,OVC044,0.02,VWS V14.01,2013-04-18 07:14:00,
2013-04-18 03:15:00,36.9,36.7,29.88,East,90,0.0,0.0,99,0.00,,OVC044,0.02,VWS V14.01,2013-04-18 07:15:00,
2013-04-18 03:16:00,36.9,36.7,29.88,East,90,0.0,0.0,99,0.00,,OVC044,0.02,VWS V14.01,2013-04-18 07:16:00,
2013-04-18 03:17:00,37.0,36.8,29.88,East,90,0.0,0.0,99,0.00,,OVC044,0.02,VWS V14.01,2013-04-18 07:17:00,
2013-04-18 03:18:00,38.2,37.9,29.83,NE,40,1.0,1.0,99,0.00,,,0.02,Wunderground v.1.15,2013-04-18 07:18:00,
2013-04-18 03:19:00,37.0,36.8,29.88,East,90,0.0,0.0,99,0.00,,OVC044,0.02,VWS V14.01,2013-04-18 07:19:00,
2013-04-18 03:20:00,37.0,36.8,29.88,ENE,68,5.0,7.0,99,0.00,,OVC044,0.02,VWS V14.01,2013-04-18 07:20:00,
2013-04-18 03:21:00,37.0,36.8,29.88,East,90,1.0,2.0,99,0.00,,OVC044,0.02,VWS V14.01,2013-04-18 07:21:00,
2013-04-18 03:22:00,37.0,36.8,29.88,East,90,0.0,0.0,99,0.00,,OVC044,0.02,VWS V14.01,2013-04-18 07:22:00,
2013-04-18 03:23:00,38.2,37.7,29.83,ENE,65,1.0,1.0,98,0.00,,,0.02,Wunderground v.1.15,2013-04-18 07:23:00,
2013-04-18 03:24:00,37.2,37.0,29.88,NE,45,1.0,4.0,99,0.00,,OVC044,0.02,VWS V14.01,2013-04-18 07:24:00,
2013-04-18 03:25:00,37.2,37.0,29.88,NE,45,0.0,0.0,99,0.00,,OVC044,0.02,VWS V14.01,2013-04-18 07:25:00,
2013-04-18 03:26:00,37.2,37.0,29.88,NE,45,0.0,0.0,99,0.00,,OVC044,0.02,VWS V14.01,2013-04-18 07:26:00,
2013-04-18 03:27:00,37.2,37.0,29.88,NE,45,0.0,0.0,99,0.00,,OVC044,0.02,VWS V14.01,2013-04-18 07:27:00,
2013-04-18 03:28:00,37.2,37.0,29.88,NE,45,0.0,0.0,99,0.00,,OVC044,0.02,VWS V14.01,2013-04-18 07:28:00,
2013-04-18 03:29:00,38.2,37.7,29.83,NE,41,0.0,0.0,98,0.00,,,0.02,Wunderground v.1.15,2013-04-18 07:29:00,
2013-04-18 03:30:00,37.2,37.0,29.87,NE,45,0.0,0.0,99,0.00,,OVC044,0.02,VWS V14.01,2013-04-18 07:30:00,
2013-04-18 03:31:00,37.2,37.0,29.87,NE,45,0.0,0.0,99,0.00,,OVC044,0.02,VWS V14.01,2013-04-18 07:31:00,
2013-04-18 03:32:00,37.2,37.0,29.87,ENE,68,2.0,5.0,99,0.00,,OVC044,0.02,VWS V14.01,2013-04-18 07:32:00,
2013-04-18 03:33:00,37.3,37.0,29.87,ENE,68,0.0,0.0,99,0.00,,OVC044,0.02,VWS V14.01,2013-04-18 07:33:00,
2013-04-18 03:34:00,38.5,38.0,29.83,NE,48,0.0,0.0,98,0.00,,,0.02,Wunderground v.1.15,2013-04-18 07:34:00,
2013-04-18 03:35:00,37.3,37.0,29.87,ENE,68,0.0,0.0,99,0.00,,OVC044,0.02,VWS V14.01,2013-04-18 07:35:00,
2013-04-18 03:36:00,37.3,37.0,29.87,ENE,68,0.0,0.0,99,0.00,,OVC044,0.02,VWS V14.01,2013-04-18 07:36:00,
2013-04-18 03:37:00,37.3,37.0,29.87,ENE,68,0.0,0.0,99,0.00,,OVC044,0.02,VWS V14.01,2013-04-18 07:37:00,
2013-04-18 03:38:00,37.3,37.0,29.87,ENE,68,0.0,0.0,99,0.00,,OVC044,0.02,VWS V14.01,2013-04-18 07:38:00,
2013-04-18 03:39:00,38.6,38.1,29.83,NNE,31,0.0,0.0,98,0.00,,,0.02,Wunderground v.1.15,2013-04-18 07:39:00,
2013-04-18 03:40:00,37.3,37.0,29.87,ENE,68,4.0,7.0,99,0.00,,OVC044,0.02,VWS V14.01,2013-04-18 07:40:00,
2013-04-18 03:41:00,37.3,37.0,29.87,East,90,1.0,5.0,99,0.00,,OVC044,0.02,VWS V14.01,2013-04-18 07:41:00,
2013-04-18 03:42:00,37.3,37.0,29.87,NE,45,1.0,5.0,99,0.00,,OVC044,0.02,VWS V14.01,2013-04-18 07:42:00,
2013-04-18 03:43:00,37.3,37.0,29.87,NE,45,0.0,0.0,99,0.00,,OVC044,0.02,VWS V14.01,2013-04-18 07:43:00,
2013-04-18 03:44:00,37.3,37.0,29.87,NE,45,0.0,0.0,99,0.00,,OVC044,0.02,VWS V14.01,2013-04-18 07:44:00,
2013-04-18 03:45:00,38.9,38.4,29.81,ENE,72,0.0,0.0,98,0.00,,,0.02,Wunderground v.1.15,2013-04-18 07:45:00,
2013-04-18 03:46:00,37.3,37.0,29.86,NE,45,0.0,0.0,99,0.00,,OVC044,0.02,VWS V14.01,2013-04-18 07:46:00,
2013-04-18 03:47:00,37.3,37.0,29.86,NE,45,4.0,7.0,99,0.00,,OVC044,0.02,VWS V14.01,2013-04-18 07:47:00,
2013-04-18 03:48:00,37.6,37.3,29.86,ENE,68,3.0,5.0,99,0.00,,OVC044,0.02,VWS V14.01,2013-04-18 07:48:00,
2013-04-18 03:49:00,37.6,37.3,29.86,ENE,68,0.0,0.0,99,0.00,,OVC044,0.02,VWS V14.01,2013-04-18 07:49:00,
2013-04-18 03:50:00,39.1,38.3,29.81,SE,133,0.0,0.0,97,0.00,,,0.02,Wunderground v.1.15,2013-04-18 07:50:00,
2013-04-18 03:51:00,37.6,37.3,29.86,NE,45,0.0,3.0,99,0.00,,OVC044,0.02,VWS V14.01,2013-04-18 07:51:00,
2013-04-18 03:52:00,37.6,37.3,29.86,NE,45,3.0,4.0,99,0.00,,OVC044,0.02,VWS V14.01,2013-04-18 07:52:00,
2013-04-18 03:53:00,37.6,37.3,29.86,NE,45,4.0,5.0,99,0.00,,OVC044,0.02,VWS V14.01,2013-04-18 07:53:00,
2013-04-18 03:54:00,37.6,37.3,29.86,ENE,68,3.0,5.0,99,0.00,,OVC044,0.02,VWS V14.01,2013-04-18 07:54:00,
2013-04-18 03:55:00,37.6,37.3,29.86,NNE,22,0.0,2.0,99,0.00,,OVC044,0.02,VWS V14.01,2013-04-18 07:55:00,
2013-04-18 03:56:00,39.1,38.1,29.81,ENE,71,0.0,2.0,96,0.00,,,0.02,Wunderground v.1.15,2013-04-18 07:56:00,
2013-04-18 03:57:00,37.8,37.5,29.86,ENE,68,0.0,0.0,99,0.00,,OVC044,0.02,VWS V14.01,2013-04-18 07:57:00,
2013-04-18 03:58:00,37.8,37.5,29.86,ENE,68,0.0,0.0,99,0.00,,OVC044,0.02,VWS V14.01,2013-04-18 07:58:00,
2013-04-18 03:59:00,37.8,37.5,29.86,ENE,68,0.0,0.0,99,0.00,,OVC044,0.02,VWS V14.01,2013-04-18 07:59:00,
2013-04-18 04:00:00,37.8,37.5,29.83,ENE,68,3.0,5.0,99,0.00,,OVC044,0.02,VWS V14.01,2013-04-18 08:00:00,
2013-04-18 04:01:00,37.8,37.5,29.83,ENE,68,0.0,0.0,99,0.00,,OVC044,0.02,VWS V14.01,2013-04-18 08:01:00,
2013-04-18 04:02:00,39.1,38.1,29.79,ENE,61,1.0,2.0,96,0.00,,,0.02,Wunderground v.1.15,2013-04-18 08:02:00,
2013-04-18 04:03:00,37.8,37.5,29.83,NE,45,0.0,0.0,99,0.00,,OVC044,0.02,VWS V14.01,2013-04-18 08:03:00,
2013-04-18 04:04:00,37.8,37.5,29.83,NE,45,0.0,0.0,99,0.00,,OVC044,0.02,VWS V14.01,2013-04-18 08:04:00,
2013-04-18 04:05:00,37.9,37.6,29.83,NE,45,0.0,0.0,99,0.00,,OVC044,0.02,VWS V14.01,2013-04-18 08:05:00,
2013-04-18 04:06:00,37.9,37.6,29.83,NE,45,0.0,0.0,99,0.00,,OVC044,0.02,VWS V14.01,2013-04-18 08:06:00,
2013-04-18 04:07:00,37.9,37.6,29.83,NE,45,0.0,0.0,99,0.00,,OVC044,0.02,VWS V14.01,2013-04-18 08:07:00,
2013-04-18 04:08:00,39.3,38.3,29.79,SE,128,0.0,2.0,96,0.00,,,0.02,Wunderground v.1.15,2013-04-18 08:08:00,
2013-04-18 04:09:00,37.9,37.6,29.83,NE,45,2.0,3.0,99,0.00,,OVC044,0.02,VWS V14.01,2013-04-18 08:09:00,
2013-04-18 04:10:00,37.9,37.6,29.83,NE,45,0.0,0.0,99,0.00,,OVC044,0.02,VWS V14.01,2013-04-18 08:10:00,
2013-04-18 04:11:00,37.9,37.6,29.83,NE,45,0.0,0.0,99,0.00,,OVC044,0.02,VWS V14.01,2013-04-18 08:11:00,
2013-04-18 04:12:00,38.0,37.7,29.83,East,90,1.0,3.0,99,0.00,,OVC044,0.02,VWS V14.01,2013-04-18 08:12:00,
2013-04-18 04:13:00,39.5,37.6,29.79,East,79,0.0,0.0,93,0.00,,,0.02,Wunderground v.1.15,2013-04-18 08:13:00,
2013-04-18 04:14:00,38.0,37.7,29.83,East,90,0.0,0.0,99,0.00,,OVC044,0.02,VWS V14.01,2013-04-18 08:14:00,
2013-04-18 04:15:00,38.0,37.7,29.83,East,90,0.0,0.0,99,0.00,,OVC044,0.02,VWS V14.01,2013-04-18 08:15:00,
2013-04-18 04:16:00,38.0,37.7,29.83,East,90,2.0,6.0,99,0.00,,OVC044,0.02,VWS V14.01,2013-04-18 08:16:00,
2013-04-18 04:17:00,38.0,37.7,29.83,ENE,68,3.0,5.0,99,0.00,,OVC044,0.02,VWS V14.01,2013-04-18 08:17:00,
2013-04-18 04:18:00,39.5,37.6,29.78,ENE,65,0.0,0.0,93,0.00,,,0.02,Wunderground v.1.15,2013-04-18 08:18:00,
2013-04-18 04:19:00,38.2,37.7,29.83,ENE,68,0.0,0.0,98,0.00,,OVC044,0.02,VWS V14.01,2013-04-18 08:19:00,
2013-04-18 04:20:00,38.2,37.7,29.83,ENE,68,0.0,0.0,98,0.00,,OVC044,0.02,VWS V14.01,2013-04-18 08:20:00,
2013-04-18 04:21:00,38.2,37.7,29.83,ENE,68,0.0,0.0,98,0.00,,OVC044,0.02,VWS V14.01,2013-04-18 08:21:00,
2013-04-18 04:22:00,38.2,37.7,29.83,ENE,68,0.0,0.0,98,0.00,,OVC044,0.02,VWS V14.01,2013-04-18 08:22:00,
2013-04-18 04:23:00,39.6,37.5,29.78,ENE,59,0.0,0.0,92,0.00,,,0.02,Wunderground v.1.15,2013-04-18 08:23:00,
2013-04-18 04:24:00,38.2,37.7,29.83,ENE,68,0.0,0.0,98,0.00,,OVC044,0.02,VWS V14.01,2013-04-18 08:24:00,
2013-04-18 04:25:00,38.2,37.7,29.83,ENE,68,0.0,0.0,98,0.00,,OVC044,0.02,VWS V14.01,2013-04-18 08:25:00,
2013-04-18 04:26:00,38.2,37.7,29.83,ENE,68,0.0,0.0,98,0.00,,OVC044,0.02,VWS V14.01,2013-04-18 08:26:00,
2013-04-18 04:27:00,38.2,37.7,29.83,ENE,68,0.0,0.0,98,0.00,,OVC044,0.02,VWS V14.01,2013-04-18 08:27:00,
2013-04-18 04:28:00,38.2,37.7,29.83,ENE,68,0.0,0.0,98,0.00,,OVC044,0.02,VWS V14.01,2013-04-18 08:28:00,
2013-04-18 04:29:00,39.8,37.7,29.76,NE,42,0.0,0.0,92,0.00,,,0.02,Wunderground v.1.15,2013-04-18 08:29:00,
2013-04-18 04:30:00,38.2,37.7,29.83,ENE,68,0.0,0.0,98,0.00,,OVC044,0.02,VWS V14.01,2013-04-18 08:30:00,
2013-04-18 04:31:00,38.2,37.7,29.83,ENE,68,0.0,0.0,98,0.00,,OVC044,0.02,VWS V14.01,2013-04-18 08:31:00,
2013-04-18 04:32:00,38.5,38.0,29.83,ENE,68,0.0,0.0,98,0.00,,OVC044,0.02,VWS V14.01,2013-04-18 08:32:00,
2013-04-18 04:33:00,38.5,38.0,29.83,ENE,68,0.0,0.0,98,0.00,,OVC044,0.02,VWS V14.01,2013-04-18 08:33:00,
2013-04-18 04:34:00,39.9,37.5,29.76,NNE,32,0.0,0.0,91,0.00,,,0.02,Wunderground v.1.15,2013-04-18 08:34:00,
2013-04-18 04:35:00,38.5,38.0,29.83,NE,45,1.0,2.0,98,0.00,,OVC044,0.02,VWS V14.01,2013-04-18 08:35:00,
2013-04-18 04:36:00,38.6,38.1,29.83,NE,45,0.0,0.0,98,0.00,,OVC044,0.02,VWS V14.01,2013-04-18 08:36:00,
2013-04-18 04:37:00,38.6,38.1,29.83,NE,45,0.0,0.0,98,0.00,,OVC044,0.02,VWS V14.01,2013-04-18 08:37:00,
2013-04-18 04:38:00,38.6,38.1,29.83,NE,45,0.0,0.0,98,0.00,,OVC044,0.02,VWS V14.01,2013-04-18 08:38:00,
2013-04-18 04:39:00,40.1,37.7,29.76,ENE,58,0.0,0.0,91,0.00,,,0.02,Wunderground v.1.15,2013-04-18 08:39:00,
2013-04-18 04:40:00,38.8,38.3,29.83,NE,45,0.0,0.0,98,0.00,,OVC044,0.02,VWS V14.01,2013-04-18 08:40:00,
2013-04-18 04:41:00,38.8,38.3,29.83,NE,45,0.0,0.0,98,0.00,,OVC044,0.02,VWS V14.01,2013-04-18 08:41:00,
2013-04-18 04:42:00,38.8,38.3,29.83,NE,45,0.0,0.0,98,0.00,,OVC044,0.02,VWS V14.01,2013-04-18 08:42:00,
2013-04-18 04:43:00,38.9,38.4,29.83,NE,45,0.0,0.0,98,0.00,,OVC044,0.02,VWS V14.01,2013-04-18 08:43:00,
2013-04-18 04:44:00,38.9,38.4,29.83,NE,45,0.0,0.0,98,0.00,,OVC044,0.02,VWS V14.01,2013-04-18 08:44:00,
2013-04-18 04:45:00,40.2,37.8,29.73,NE,44,0.0,0.0,91,0.00,,,0.02,Wunderground v.1.15,2013-04-18 08:45:00,
2013-04-18 04:46:00,38.9,38.4,29.81,NE,45,0.0,0.0,98,0.00,,OVC044,0.02,VWS V14.01,2013-04-18 08:46:00,
2013-04-18 04:47:00,38.9,38.4,29.81,NE,45,0.0,0.0,98,0.00,,OVC044,0.02,VWS V14.01,2013-04-18 08:47:00,
2013-04-18 04:48:00,38.9,38.4,29.81,NE,45,0.0,0.0,98,0.00,,OVC044,0.02,VWS V14.01,2013-04-18 08:48:00,
2013-04-18 04:49:00,38.9,38.1,29.81,NE,45,0.0,0.0,97,0.00,,OVC044,0.02,VWS V14.01,2013-04-18 08:49:00,
2013-04-18 04:50:00,40.3,37.0,29.73,East,83,1.0,5.0,88,0.00,,,0.02,Wunderground v.1.15,2013-04-18 08:50:00,
2013-04-18 04:51:00,39.1,38.3,29.81,NE,45,0.0,0.0,97,0.00,,OVC044,0.02,VWS V14.01,2013-04-18 08:51:00,
2013-04-18 04:52:00,39.1,38.3,29.81,NE,45,0.0,0.0,97,0.00,,OVC044,0.02,VWS V14.01,2013-04-18 08:52:00,
2013-04-18 04:53:00,39.1,38.3,29.81,NE,45,0.0,0.0,97,0.00,,OVC044,0.02,VWS V14.01,2013-04-18 08:53:00,
2013-04-18 04:54:00,39.1,38.3,29.81,ENE,68,1.0,2.0,97,0.00,,OVC044,0.02,VWS V14.01,2013-04-18 08:54:00,
2013-04-18 04:55:00,39.1,38.1,29.81,East,90,1.0,3.0,96,0.00,,OVC044,0.02,VWS V14.01,2013-04-18 08:55:00,
2013-04-18 04:56:00,40.6,37.0,29.73,ENE,58,1.0,5.0,87,0.00,,,0.02,Wunderground v.1.15,2013-04-18 08:56:00,
2013-04-18 04:57:00,39.1,38.1,29.81,East,90,0.0,0.0,96,0.00,,OVC044,0.02,VWS V14.01,2013-04-18 08:57:00,
2013-04-18 04:58:00,39.1,38.1,29.81,East,90,0.0,0.0,96,0.00,,OVC044,0.02,VWS V14.01,2013-04-18 08:58:00,
2013-04-18 04:59:00,39.1,38.1,29.81,East,90,0.0,0.0,96,0.00,,OVC044,0.02,VWS V14.01,2013-04-18 08:59:00,
2013-04-18 05:00:00,39.1,38.1,29.79,ENE,68,2.0,2.0,96,0.00,,OVC044,0.02,VWS V14.01,2013-04-18 09:00:00,
2013-04-18 05:01:00,39.1,38.1,29.79,ENE,68,0.0,0.0,96,0.00,,OVC044,0.02,VWS V14.01,2013-04-18 09:01:00,
2013-04-18 05:02:00,40.6,37.0,29.72,NNE,23,1.0,7.0,87,0.00,,,0.02,Wunderground v.1.15,2013-04-18 09:02:00,
2013-04-18 05:03:00,39.1,38.1,29.79,ENE,68,0.0,0.0,96,0.00,,OVC044,0.02,VWS V14.01,2013-04-18 09:03:00,
2013-04-18 05:04:00,39.1,38.1,29.79,ENE,68,0.0,0.0,96,0.00,,OVC044,0.02,VWS V14.01,2013-04-18 09:04:00,
2013-04-18 05:05:00,39.1,38.1,29.79,ENE,68,0.0,0.0,96,0.00,,OVC044,0.02,VWS V14.01,2013-04-18 09:05:00,
2013-04-18 05:06:00,39.1,38.1,29.79,ENE,68,0.0,0.0,96,0.00,,OVC044,0.02,VWS V14.01,2013-04-18 09:06:00,
2013-04-18 05:07:00,39.1,38.1,29.79,ENE,68,0.0,0.0,96,0.00,,OVC044,0.02,VWS V14.01,2013-04-18 09:07:00,
2013-04-18 05:08:00,40.6,37.0,29.72,ENE,64,0.0,7.0,87,0.00,,,0.02,Wunderground v.1.15,2013-04-18 09:08:00,
2013-04-18 05:09:00,39.3,38.3,29.79,ENE,68,0.0,0.0,96,0.00,,OVC044,0.02,VWS V14.01,2013-04-18 09:09:00,
2013-04-18 05:10:00,39.5,38.5,29.79,ENE,68,0.0,0.0,96,0.00,,OVC044,0.02,VWS V14.01,2013-04-18 09:10:00,
2013-04-18 05:11:00,39.5,38.5,29.79,ENE,68,0.0,0.0,96,0.00,,OVC044,0.02,VWS V14.01,2013-04-18 09:11:00,
2013-04-18 05:12:00,39.5,37.7,29.79,ENE,68,0.0,0.0,93,0.00,,OVC044,0.02,VWS V14.01,2013-04-18 09:12:00,
2013-04-18 05:13:00,40.6,37.0,29.72,East,97,0.0,0.0,87,0.00,,,0.02,Wunderground v.1.15,2013-04-18 09:13:00,
2013-04-18 05:14:00,39.5,37.7,29.79,ENE,68,0.0,0.0,93,0.00,,OVC044,0.02,VWS V14.01,2013-04-18 09:14:00,
2013-04-18 05:15:00,39.5,37.7,29.78,ENE,68,0.0,0.0,93,0.00,,OVC044,0.02,VWS V14.01,2013-04-18 09:15:00,
2013-04-18 05:16:00,39.5,37.7,29.78,ENE,68,0.0,0.0,93,0.00,,OVC044,0.02,VWS V14.01,2013-04-18 09:16:00,
2013-04-18 05:17:00,39.5,37.7,29.78,ENE,68,0.0,0.0,93,0.00,,OVC044,0.02,VWS V14.01,2013-04-18 09:17:00,
2013-04-18 05:18:00,40.5,37.2,29.72,NNE,13,0.0,0.0,88,0.00,,,0.02,Wunderground v.1.15,2013-04-18 09:18:00,
2013-04-18 05:19:00,39.6,37.5,29.78,ENE,68,0.0,0.0,92,0.00,,OVC044,0.02,VWS V14.01,2013-04-18 09:19:00,
2013-04-18 05:20:00,39.6,37.5,29.78,ENE,68,0.0,0.0,92,0.00,,OVC044,0.02,VWS V14.01,2013-04-18 09:20:00,
2013-04-18 05:21:00,39.6,37.5,29.78,ENE,68,0.0,0.0,92,0.00,,OVC044,0.02,VWS V14.01,2013-04-18 09:21:00,
2013-04-18 05:22:00,39.6,37.5,29.78,ENE,68,0.0,0.0,92,0.00,,OVC044,0.02,VWS V14.01,2013-04-18 09:22:00,
2013-04-18 05:23:00,39.6,37.5,29.78,ENE,68,0.0,0.0,92,0.00,,OVC044,0.02,VWS V14.01,2013-04-18 09:23:00,
2013-04-18 05:24:00,40.5,37.2,29.72,East,89,0.0,6.0,88,0.00,,,0.02,Wunderground v.1.15,2013-04-18 09:24:00,
2013-04-18 05:25:00,39.6,37.5,29.78,ENE,68,0.0,0.0,92,0.00,,OVC044,0.02,VWS V14.01,2013-04-18 09:25:00,
2013-04-18 05:26:00,39.6,37.5,29.78,ENE,68,0.0,0.0,92,0.00,,OVC044,0.02,VWS V14.01,2013-04-18 09:26:00,
2013-04-18 05:27:00,39.6,37.5,29.78,ENE,68,0.0,0.0,92,0.00,,OVC044,0.02,VWS V14.01,2013-04-18 09:27:00,
2013-04-18 05:28:00,39.6,37.5,29.78,ENE,68,0.0,0.0,92,0.00,,OVC044,0.02,VWS V14.01,2013-04-18 09:28:00,
2013-04-18 05:29:00,39.8,37.7,29.78,ENE,68,0.0,0.0,92,0.00,,OVC044,0.02,VWS V14.01,2013-04-18 09:29:00,
2013-04-18 05:30:00,40.3,37.3,29.72,NE,45,0.0,0.0,89,0.00,,,0.02,Wunderground v.1.15,2013-04-18 09:30:00,
2013-04-18 05:31:00,39.8,37.7,29.76,ENE,68,0.0,0.0,92,0.00,,OVC044,0.02,VWS V14.01,2013-04-18 09:31:00,
2013-04-18 05:32:00,39.8,37.4,29.76,ESE,112,0.0,2.0,91,0.00,,OVC044,0.02,VWS V14.01,2013-04-18 09:32:00,
2013-04-18 05:33:00,39.8,37.4,29.76,ESE,112,0.0,0.0,91,0.00,,OVC044,0.02,VWS V14.01,2013-04-18 09:33:00,
2013-04-18 05:34:00,39.9,37.5,29.76,ESE,112,0.0,0.0,91,0.00,,OVC044,0.02,VWS V14.01,2013-04-18 09:34:00,
2013-04-18 05:35:00,39.9,37.5,29.76,ESE,112,0.0,0.0,91,0.00,,OVC044,0.02,VWS V14.01,2013-04-18 09:35:00,
2013-04-18 05:36:00,40.2,37.8,29.72,NE,47,0.0,0.0,91,0.00,,,0.03,Wunderground v.1.15,2013-04-18 09:36:00,
2013-04-18 05:37:00,39.9,37.5,29.76,ENE,68,2.0,2.0,91,0.00,,OVC044,0.02,VWS V14.01,2013-04-18 09:37:00,
2013-04-18 05:38:00,40.0,37.6,29.76,ENE,68,0.0,0.0,91,0.00,,OVC044,0.02,VWS V14.01,2013-04-18 09:38:00,
2013-04-18 05:39:00,40.1,37.7,29.76,ENE,68,0.0,0.0,91,0.00,,OVC044,0.02,VWS V14.01,2013-04-18 09:39:00,
2013-04-18 05:40:00,40.1,37.7,29.76,ENE,68,0.0,0.0,91,0.00,,OVC044,0.02,VWS V14.01,2013-04-18 09:40:00,
2013-04-18 05:41:00,40.1,37.7,29.76,ENE,68,0.0,0.0,91,0.00,,OVC044,0.02,VWS V14.01,2013-04-18 09:41:00,
2013-04-18 05:42:00,40.1,37.7,29.76,NE,45,1.0,6.0,91,0.00,,OVC044,0.02,VWS V14.01,2013-04-18 09:42:00,
2013-04-18 05:43:00,40.2,37.8,29.72,ENE,59,0.0,0.0,91,0.11,,,0.04,Wunderground v.1.15,2013-04-18 09:43:00,
2013-04-18 05:44:00,40.1,37.7,29.76,NE,45,0.0,0.0,91,0.00,,OVC044,0.02,VWS V14.01,2013-04-18 09:44:00,
2013-04-18 05:45:00,40.2,37.8,29.73,NE,45,0.0,0.0,91,0.00,,OVC044,0.02,VWS V14.01,2013-04-18 09:45:00,
2013-04-18 05:46:00,40.2,37.8,29.73,NE,45,0.0,2.0,91,0.00,,OVC044,0.02,VWS V14.01,2013-04-18 09:46:00,
2013-04-18 05:47:00,40.2,37.8,29.73,NE,45,0.0,0.0,91,0.00,,OVC044,0.02,VWS V14.01,2013-04-18 09:47:00,
2013-04-18 05:48:00,40.1,38.0,29.70,NE,40,1.0,5.0,92,0.08,,,0.04,Wunderground v.1.15,2013-04-18 09:48:00,
2013-04-18 05:49:00,40.3,37.0,29.73,ENE,68,3.0,5.0,88,0.00,,OVC044,0.02,VWS V14.01,2013-04-18 09:49:00,
2013-04-18 05:50:00,40.3,37.0,29.73,ENE,68,3.0,7.0,88,0.00,,OVC044,0.02,VWS V14.01,2013-04-18 09:50:00,
2013-04-18 05:51:00,40.5,37.2,29.73,East,90,1.0,3.0,88,0.00,,OVC044,0.02,VWS V14.01,2013-04-18 09:51:00,
2013-04-18 05:52:00,40.5,36.9,29.73,ENE,68,0.0,5.0,87,0.00,,OVC044,0.02,VWS V14.01,2013-04-18 09:52:00,
2013-04-18 05:53:00,40.1,38.2,29.70,NE,54,1.0,2.0,93,0.05,,,0.05,Wunderground v.1.15,2013-04-18 09:53:00,
2013-04-18 05:54:00,40.5,36.9,29.73,NE,45,1.0,5.0,87,0.00,,OVC044,0.02,VWS V14.01,2013-04-18 09:54:00,
2013-04-18 05:55:00,40.5,36.9,29.73,NE,45,0.0,0.0,87,0.00,,OVC044,0.02,VWS V14.01,2013-04-18 09:55:00,
2013-04-18 05:56:00,40.6,37.0,29.73,NE,45,0.0,0.0,87,0.00,,OVC044,0.02,VWS V14.01,2013-04-18 09:56:00,
2013-04-18 05:57:00,40.6,37.0,29.73,NNE,22,1.0,5.0,87,0.00,,OVC044,0.02,VWS V14.01,2013-04-18 09:57:00,
2013-04-18 05:58:00,39.9,38.3,29.70,NE,37,1.0,3.0,94,0.05,,,0.05,Wunderground v.1.15,2013-04-18 09:58:00,
2013-04-18 05:59:00,40.6,37.0,29.73,NNE,22,0.0,0.0,87,0.00,,OVC044,0.02,VWS V14.01,2013-04-18 09:59:00,
2013-04-18 06:00:00,40.6,37.0,29.72,NNE,22,0.0,0.0,87,0.00,,OVC044,0.02,VWS V14.01,2013-04-18 10:00:00,
2013-04-18 06:01:00,40.6,37.0,29.72,East,90,2.0,7.0,87,0.00,,OVC044,0.02,VWS V14.01,2013-04-18 10:01:00,
2013-04-18 06:02:00,40.6,37.0,29.72,East,90,0.0,0.0,87,0.00,,OVC044,0.02,VWS V14.01,2013-04-18 10:02:00,
2013-04-18 06:03:00,39.9,38.3,29.69,ESE,102,1.0,6.0,94,0.07,,,0.06,Wunderground v.1.15,2013-04-18 10:03:00,
2013-04-18 06:04:00,40.6,37.0,29.72,NE,45,1.0,5.0,87,0.00,,OVC044,0.02,VWS V14.01,2013-04-18 10:04:00,
2013-04-18 06:05:00,40.6,37.0,29.72,NE,45,0.0,0.0,87,0.00,,OVC044,0.02,VWS V14.01,2013-04-18 10:05:00,
2013-04-18 06:06:00,40.6,37.0,29.72,NE,45,0.0,0.0,87,0.00,,OVC044,0.02,VWS V14.01,2013-04-18 10:06:00,
2013-04-18 06:07:00,40.6,37.0,29.72,NE,45,0.0,0.0,87,0.00,,OVC044,0.02,VWS V14.01,2013-04-18 10:07:00,
2013-04-18 06:08:00,40.6,37.0,29.72,NE,45,0.0,0.0,87,0.00,,OVC044,0.02,VWS V14.01,2013-04-18 10:08:00,
2013-04-18 06:09:00,39.9,38.6,29.69,ENE,71,1.0,1.0,95,0.07,,,0.06,Wunderground v.1.15,2013-04-18 10:09:00,
2013-04-18 06:10:00,40.6,37.0,29.72,ENE,68,0.0,0.0,87,0.00,,OVC044,0.02,VWS V14.01,2013-04-18 10:10:00,
2013-04-18 06:11:00,40.6,37.0,29.72,ENE,68,0.0,0.0,87,0.00,,OVC044,0.02,VWS V14.01,2013-04-18 10:11:00,
2013-04-18 06:12:00,40.6,37.0,29.72,ENE,68,1.0,5.0,87,0.00,,OVC044,0.02,VWS V14.01,2013-04-18 10:12:00,
2013-04-18 06:13:00,40.6,37.0,29.72,ENE,68,0.0,0.0,87,0.00,,OVC044,0.02,VWS V14.01,2013-04-18 10:13:00,
2013-04-18 06:14:00,39.9,39.1,29.68,SSE,150,1.0,4.0,97,0.06,,,0.07,Wunderground v.1.15,2013-04-18 10:14:00,
2013-04-18 06:15:00,40.5,36.9,29.72,ENE,68,0.0,0.0,87,0.00,,-RA,0.02,VWS V14.01,2013-04-18 10:15:00,
2013-04-18 06:16:00,40.5,36.9,29.72,ENE,68,0.0,0.0,87,0.00,,-RA,0.02,VWS V14.01,2013-04-18 10:16:00,
2013-04-18 06:17:00,40.5,37.2,29.72,ENE,68,0.0,0.0,88,0.00,,-RA,0.02,VWS V14.01,2013-04-18 10:17:00,
2013-04-18 06:18:00,40.5,37.2,29.72,ENE,68,0.0,0.0,88,0.00,,-RA,0.02,VWS V14.01,2013-04-18 10:18:00,
2013-04-18 06:19:00,40.5,37.2,29.72,ENE,68,1.0,3.0,88,0.00,,-RA,0.02,VWS V14.01,2013-04-18 10:19:00,
2013-04-18 06:20:00,40.5,37.2,29.72,ENE,68,0.0,0.0,88,0.00,,-RA,0.02,VWS V14.01,2013-04-18 10:20:00,
2013-04-18 06:21:00,40.5,37.2,29.72,ENE,68,0.0,0.0,88,0.00,,-RA,0.02,VWS V14.01,2013-04-18 10:21:00,
2013-04-18 06:22:00,39.9,39.1,29.69,SSE,158,1.0,5.0,97,0.04,,OVC044,0.06,VWS V14.01,2013-04-18 10:22:00,
2013-04-18 06:23:00,40.5,37.2,29.72,SE,135,0.0,0.0,88,0.00,,-RA,0.02,VWS V14.01,2013-04-18 10:23:00,
2013-04-18 06:24:00,40.5,37.2,29.72,SE,135,0.0,0.0,88,0.00,,-RA,0.02,VWS V14.01,2013-04-18 10:24:00,
2013-04-18 06:25:00,40.5,37.5,29.72,East,90,2.0,5.0,89,0.00,,-RA,0.02,VWS V14.01,2013-04-18 10:25:00,
2013-04-18 06:26:00,40.5,37.5,29.72,East,90,0.0,0.0,89,0.00,,-RA,0.02,VWS V14.01,2013-04-18 10:26:00,
2013-04-18 06:27:00,39.8,39.0,29.68,NE,42,0.0,5.0,97,0.06,,OVC044,0.08,VWS V14.01,2013-04-18 10:27:00,
2013-04-18 06:28:00,40.3,37.3,29.72,East,90,0.0,0.0,89,0.00,,-RA,0.02,VWS V14.01,2013-04-18 10:28:00,
2013-04-18 06:29:00,40.3,37.3,29.72,SE,135,0.0,1.0,89,0.00,,-RA,0.02,VWS V14.01,2013-04-18 10:29:00,
2013-04-18 06:30:00,40.3,37.3,29.72,NNE,22,0.0,1.0,89,0.00,,-RA,0.02,VWS V14.01,2013-04-18 10:30:00,
2013-04-18 06:31:00,40.3,37.3,29.72,NNE,22,0.0,0.0,89,0.00,,-RA,0.02,VWS V14.01,2013-04-18 10:31:00,
2013-04-18 06:32:00,39.8,39.0,29.67,NE,55,10.0,10.0,97,0.06,,OVC044,0.08,VWS V14.01,2013-04-18 10:32:00,
2013-04-18 06:33:00,40.3,37.6,29.72,NNE,22,0.0,0.0,90,0.00,,-RA,0.02,VWS V14.01,2013-04-18 10:33:00,
2013-04-18 06:34:00,40.3,37.6,29.72,NE,45,1.0,3.0,90,0.00,,-RA,0.02,VWS V14.01,2013-04-18 10:34:00,
2013-04-18 06:35:00,40.3,37.6,29.72,East,90,2.0,5.0,90,0.00,,-RA,0.02,VWS V14.01,2013-04-18 10:35:00,
2013-04-18 06:36:00,40.3,37.9,29.72,East,90,0.0,0.0,91,0.01,,-RA,0.03,VWS V14.01,2013-04-18 10:36:00,
2013-04-18 06:37:00,39.8,39.0,29.67,NE,47,0.0,5.0,97,0.05,,OVC044,0.08,VWS V14.01,2013-04-18 10:37:00,
2013-04-18 06:38:00,40.2,37.8,29.72,East,90,0.0,0.0,91,0.01,,-RA,0.03,VWS V14.01,2013-04-18 10:38:00,
2013-04-18 06:39:00,40.2,37.8,29.72,East,90,0.0,0.0,91,0.01,,-RA,0.03,VWS V14.01,2013-04-18 10:39:00,
2013-04-18 06:40:00,40.2,37.8,29.72,East,90,0.0,0.0,91,0.01,,-RA,0.03,VWS V14.01,2013-04-18 10:40:00,
2013-04-18 06:41:00,40.2,37.8,29.72,East,90,0.0,0.0,91,0.02,,-RA,0.04,VWS V14.01,2013-04-18 10:41:00,
2013-04-18 06:42:00,39.8,39.3,29.67,NE,42,1.0,5.0,98,0.04,,OVC090,0.08,VWS V14.01,2013-04-18 10:42:00,
2013-04-18 06:43:00,40.2,37.8,29.72,East,90,0.0,0.0,91,0.02,,-RA,0.04,VWS V14.01,2013-04-18 10:43:00,
2013-04-18 06:44:00,40.2,37.8,29.72,NE,45,2.0,4.0,91,0.02,,-RA,0.04,VWS V14.01,2013-04-18 10:44:00,
2013-04-18 06:45:00,40.2,37.8,29.70,NE,45,1.0,1.0,91,0.02,,-RA,0.04,VWS V14.01,2013-04-18 10:45:00,
2013-04-18 06:46:00,40.1,37.7,29.70,SE,135,1.0,3.0,91,0.02,,-RA,0.04,VWS V14.01,2013-04-18 10:46:00,
2013-04-18 06:47:00,39.8,39.3,29.66,SE,133,5.0,5.0,98,0.04,,OVC090,0.08,VWS V14.01,2013-04-18 10:47:00,
2013-04-18 06:48:00,40.1,38.0,29.70,NE,45,2.0,2.0,92,0.02,,-RA,0.04,VWS V14.01,2013-04-18 10:48:00,
2013-04-18 06:49:00,40.1,38.0,29.70,NE,45,0.0,0.0,92,0.02,,-RA,0.04,VWS V14.01,2013-04-18 10:49:00,
2013-04-18 06:50:00,40.1,38.2,29.70,NE,45,0.0,0.0,93,0.02,,-RA,0.04,VWS V14.01,2013-04-18 10:50:00,
2013-04-18 06:51:00,40.1,38.2,29.70,NE,45,0.0,0.0,93,0.02,,-RA,0.04,VWS V14.01,2013-04-18 10:51:00,
2013-04-18 06:52:00,39.6,39.1,29.66,East,99,5.0,5.0,98,0.04,,OVC090,0.08,VWS V14.01,2013-04-18 10:52:00,
2013-04-18 06:53:00,40.1,38.2,29.70,NE,45,1.0,4.0,93,0.02,,-RA,0.04,VWS V14.01,2013-04-18 10:53:00,
2013-04-18 06:54:00,40.1,38.2,29.70,NE,45,2.0,6.0,93,0.03,,-RA,0.05,VWS V14.01,2013-04-18 10:54:00,
2013-04-18 06:55:00,40.1,38.2,29.70,NE,45,1.0,3.0,93,0.03,,-RA,0.05,VWS V14.01,2013-04-18 10:55:00,
2013-04-18 06:56:00,40.1,38.2,29.70,NE,45,0.0,0.0,93,0.03,,-RA,0.05,VWS V14.01,2013-04-18 10:56:00,
2013-04-18 06:57:00,39.6,39.1,29.66,ENE,68,8.0,8.0,98,0.06,,OVC090,0.11,VWS V14.01,2013-04-18 10:57:00,
2013-04-18 06:58:00,39.9,38.3,29.70,ENE,68,0.0,0.0,94,0.03,,-RA,0.05,VWS V14.01,2013-04-18 10:58:00,
2013-04-18 06:59:00,39.9,38.3,29.70,ENE,68,0.0,0.0,94,0.03,,-RA,0.05,VWS V14.01,2013-04-18 10:59:00,
2013-04-18 07:00:00,39.9,38.3,29.69,ENE,68,0.0,0.0,94,0.03,,-RA,0.05,VWS V14.01,2013-04-18 11:00:00,
2013-04-18 07:01:00,39.9,38.3,29.69,ENE,68,0.0,0.0,94,0.03,,-RA,0.05,VWS V14.01,2013-04-18 11:01:00,
2013-04-18 07:02:00,39.6,39.3,29.65,ENE,59,2.0,5.0,99,0.06,,-RA,0.12,VWS V14.01,2013-04-18 11:02:00,
2013-04-18 07:03:00,39.9,38.3,29.69,East,90,4.0,6.0,94,0.04,,-RA,0.06,VWS V14.01,2013-04-18 11:03:00,
2013-04-18 07:04:00,39.9,38.3,29.69,SE,135,3.0,7.0,94,0.04,,-RA,0.06,VWS V14.01,2013-04-18 11:04:00,
2013-04-18 07:05:00,39.9,38.3,29.69,NE,45,1.0,5.0,94,0.04,,-RA,0.06,VWS V14.01,2013-04-18 11:05:00,
2013-04-18 07:06:00,39.9,38.6,29.69,NE,45,2.0,7.0,95,0.04,,-RA,0.06,VWS V14.01,2013-04-18 11:06:00,
2013-04-18 07:07:00,39.6,39.3,29.65,ENE,62,1.0,5.0,99,0.06,,-RA,0.12,VWS V14.01,2013-04-18 11:07:00,
2013-04-18 07:08:00,39.9,38.6,29.69,NE,45,0.0,0.0,95,0.04,,-RA,0.06,VWS V14.01,2013-04-18 11:08:00,
2013-04-18 07:09:00,39.9,38.6,29.69,NE,45,0.0,0.0,95,0.04,,-RA,0.06,VWS V14.01,2013-04-18 11:09:00,
2013-04-18 07:10:00,39.9,38.6,29.69,NE,45,1.0,3.0,95,0.04,,-RA,0.06,VWS V14.01,2013-04-18 11:10:00,
2013-04-18 07:11:00,39.9,38.6,29.69,NE,45,0.0,0.0,95,0.04,,-RA,0.06,VWS V14.01,2013-04-18 11:11:00,
2013-04-18 07:12:00,39.8,39.5,29.65,SE,127,5.0,5.0,99,0.06,,-RA,0.12,VWS V14.01,2013-04-18 11:12:00,
2013-04-18 07:13:00,39.9,38.8,29.69,NE,45,0.0,0.0,96,0.04,,-RA,0.06,VWS V14.01,2013-04-18 11:13:00,
2013-04-18 07:14:00,39.9,39.1,29.69,SSE,158,1.0,5.0,97,0.04,,-RA,0.06,VWS V14.01,2013-04-18 11:14:00,
2013-04-18 07:17:00,39.8,39.5,29.65,NE,52,0.0,5.0,99,0.05,,-RA,0.13,VWS V14.01,2013-04-18 11:17:00,
2013-04-18 07:22:00,39.8,39.0,29.68,NE,48,0.0,5.0,97,0.06,,-RA,0.08,VWS V14.01,2013-04-18 11:22:00,
2013-04-18 07:32:00,39.8,39.5,29.63,East,90,0.0,0.0,99,0.06,,-RA,0.14,VWS V14.01,2013-04-18 11:32:00,
2013-04-18 07:37:00,39.8,39.5,29.63,ENE,58,2.0,0.0,99,0.06,,-RA,0.14,VWS V14.01,2013-04-18 11:37:00,
2013-04-18 07:42:00,39.8,39.8,29.63,NE,54,0.0,0.0,100,0.06,,-RA,0.14,VWS V14.01,2013-04-18 11:42:00,
2013-04-18 07:47:00,39.9,39.9,29.61,NE,42,0.0,0.0,100,0.07,,-RA,0.15,VWS V14.01,2013-04-18 11:47:00,
2013-04-18 07:52:00,39.9,39.6,29.61,NNE,32,0.0,0.0,99,0.07,,-RA,0.15,VWS V14.01,2013-04-18 11:52:00,
2013-04-18 07:57:00,40.1,39.8,29.61,NE,47,2.0,0.0,99,0.04,,-RA,0.15,VWS V14.01,2013-04-18 11:57:00,
2013-04-18 08:02:00,40.1,39.8,29.60,NE,37,0.0,0.0,99,0.03,,-RA,0.15,VWS V14.01,2013-04-18 12:02:00,
2013-04-18 08:07:00,40.1,39.8,29.60,NE,56,1.0,0.0,99,0.03,,-RA,0.15,VWS V14.01,2013-04-18 12:07:00,
2013-04-18 08:12:00,40.2,39.9,29.60,NE,49,0.0,0.0,99,0.03,,-RA,0.15,VWS V14.01,2013-04-18 12:12:00,
2013-04-18 08:17:00,40.2,39.9,29.60,NE,56,3.0,0.0,99,0.02,,-RA,0.15,VWS V14.01,2013-04-18 12:17:00,
2013-04-18 08:22:00,40.2,39.9,29.60,NE,45,0.0,0.0,99,0.02,,OVC016,0.15,VWS V14.01,2013-04-18 12:22:00,
2013-04-18 08:27:00,40.2,39.9,29.60,NNE,16,2.0,0.0,99,0.02,,OVC016,0.15,VWS V14.01,2013-04-18 12:27:00,
2013-04-18 08:32:00,40.2,39.9,29.59,NE,45,0.0,0.0,99,0.01,,OVC016,0.15,VWS V14.01,2013-04-18 12:32:00,
2013-04-18 08:37:00,40.3,40.0,29.59,NNE,27,0.0,0.0,99,0.01,,OVC016,0.15,VWS V14.01,2013-04-18 12:37:00,
2013-04-18 08:42:00,40.5,40.2,29.59,NE,49,0.0,0.0,99,0.01,,OVC016,0.15,VWS V14.01,2013-04-18 12:42:00,
2013-04-18 08:47:00,40.5,40.2,29.58,ENE,62,6.0,0.0,99,0.00,,OVC016,0.15,VWS V14.01,2013-04-18 12:47:00,
2013-04-18 08:52:00,40.6,40.3,29.58,NE,55,0.0,0.0,99,0.00,,OVC016,0.15,VWS V14.01,2013-04-18 12:52:00,
2013-04-18 08:57:00,40.6,40.6,29.58,North,4,1.0,0.0,100,0.00,,OVC016,0.15,VWS V14.01,2013-04-18 12:57:00,
2013-04-18 09:02:00,40.6,40.6,29.57,NE,41,0.0,0.0,100,0.00,,OVC034,0.15,VWS V14.01,2013-04-18 13:02:00,
2013-04-18 09:07:00,40.6,40.6,29.57,NE,37,0.0,0.0,100,0.00,,OVC034,0.15,VWS V14.01,2013-04-18 13:07:00,
2013-04-18 09:12:00,40.8,40.8,29.57,NNE,28,1.0,0.0,100,0.00,,OVC034,0.15,VWS V14.01,2013-04-18 13:12:00,
2013-04-18 09:17:00,40.8,40.8,29.57,ENE,65,0.0,0.0,100,0.00,,OVC034,0.15,VWS V14.01,2013-04-18 13:17:00,
2013-04-18 09:22:00,40.8,40.8,29.57,ENE,65,0.0,0.0,100,0.00,,OVC012,0.15,VWS V14.01,2013-04-18 13:22:00,
2013-04-18 09:28:00,40.8,40.8,29.57,ENE,65,0.0,0.0,100,0.00,,OVC012,0.15,VWS V14.01,2013-04-18 13:28:00,
2013-04-18 09:33:00,40.9,40.9,29.58,ENE,65,0.0,0.0,100,0.00,,OVC012,0.15,VWS V14.01,2013-04-18 13:33:00,
2013-04-18 09:38:00,41.1,41.1,29.58,ENE,65,0.0,0.0,100,0.00,,OVC012,0.15,VWS V14.01,2013-04-18 13:38:00,
2013-04-18 09:43:00,41.1,41.1,29.58,ENE,65,0.0,0.0,100,0.00,,OVC010,0.15,VWS V14.01,2013-04-18 13:43:00,
2013-04-18 09:48:00,41.2,41.2,29.58,ENE,65,0.0,0.0,100,0.00,,OVC010,0.15,VWS V14.01,2013-04-18 13:48:00,
2013-04-18 09:53:00,41.2,41.2,29.58,ENE,65,0.0,0.0,100,0.00,,OVC010,0.15,VWS V14.01,2013-04-18 13:53:00,
2013-04-18 09:58:00,41.3,41.3,29.58,ENE,65,0.0,0.0,100,0.00,,OVC010,0.15,VWS V14.01,2013-04-18 13:58:00,
2013-04-18 10:03:00,41.3,41.3,29.58,ENE,65,0.0,0.0,100,0.00,,OVC010,0.15,VWS V14.01,2013-04-18 14:03:00,
2013-04-18 10:08:00,41.5,41.5,29.58,ENE,65,0.0,0.0,100,0.00,,OVC010,0.15,VWS V14.01,2013-04-18 14:08:00,
2013-04-18 10:13:00,41.5,41.5,29.58,ENE,65,0.0,0.0,100,0.00,,OVC010,0.15,VWS V14.01,2013-04-18 14:13:00,
2013-04-18 10:18:00,41.6,41.6,29.58,ENE,65,0.0,0.0,100,0.01,,OVC010,0.16,VWS V14.01,2013-04-18 14:18:00,
2013-04-18 10:23:00,41.6,41.6,29.58,ENE,65,0.0,0.0,100,0.02,,,0.17,VWS V14.01,2013-04-18 14:23:00,
2013-04-18 10:28:00,41.8,41.8,29.58,ENE,61,0.0,0.0,100,0.04,,,0.19,VWS V14.01,2013-04-18 14:28:00,
2013-04-18 10:33:00,41.8,41.8,29.57,ENE,61,0.0,0.0,100,0.05,,,0.20,VWS V14.01,2013-04-18 14:33:00,
2013-04-18 10:38:00,41.8,41.5,29.57,NE,47,0.0,0.0,99,0.05,,,0.20,VWS V14.01,2013-04-18 14:38:00,
2013-04-18 10:43:00,41.8,41.5,29.57,NE,47,0.0,0.0,99,0.05,,RA,0.20,VWS V14.01,2013-04-18 14:43:00,
2013-04-18 10:48:00,41.9,41.6,29.56,NE,47,0.0,0.0,99,0.05,,RA,0.20,VWS V14.01,2013-04-18 14:48:00,
2013-04-18 10:53:00,42.1,41.8,29.56,NE,47,0.0,0.0,99,0.06,,RA,0.21,VWS V14.01,2013-04-18 14:53:00,
2013-04-18 10:58:00,42.1,41.8,29.56,NNE,23,0.0,0.0,99,0.06,,RA,0.21,VWS V14.01,2013-04-18 14:58:00,
2013-04-18 11:03:00,42.1,41.8,29.56,North,352,0.0,0.0,99,0.06,,RA,0.21,VWS V14.01,2013-04-18 15:03:00,
2013-04-18 11:08:00,41.9,41.6,29.56,North,352,0.0,0.0,99,0.06,,RA,0.21,VWS V14.01,2013-04-18 15:08:00,
2013-04-18 11:14:00,41.9,41.6,29.56,North,352,0.0,0.0,99,0.06,,RA,0.21,VWS V14.01,2013-04-18 15:14:00,
2013-04-18 11:19:00,41.9,41.9,29.55,NNE,25,3.0,0.0,100,0.06,,RA,0.22,VWS V14.01,2013-04-18 15:19:00,
2013-04-18 11:24:00,41.8,41.8,29.55,NNE,16,0.0,0.0,100,0.05,,OVC004,0.22,VWS V14.01,2013-04-18 15:24:00,
2013-04-18 11:29:00,41.8,41.8,29.55,North,0,0.0,0.0,100,0.04,,OVC004,0.23,VWS V14.01,2013-04-18 15:29:00,
2013-04-18 11:34:00,41.6,41.6,29.57,NNE,20,2.0,0.0,100,0.03,,OVC004,0.23,VWS V14.01,2013-04-18 15:34:00,
2013-04-18 11:39:00,41.6,41.6,29.57,NW,313,0.0,0.0,100,0.04,,OVC004,0.24,VWS V14.01,2013-04-18 15:39:00,
2013-04-18 11:44:00,41.5,41.5,29.57,North,4,0.0,0.0,100,0.04,,RA,0.24,VWS V14.01,2013-04-18 15:44:00,
2013-04-18 11:49:00,41.2,41.2,29.55,NW,313,0.0,0.0,100,0.04,,RA,0.24,VWS V14.01,2013-04-18 15:49:00,
2013-04-18 11:54:00,41.2,41.2,29.55,NE,34,0.0,0.0,100,0.07,,RA,0.28,VWS V14.01,2013-04-18 15:54:00,
2013-04-18 11:59:00,41.2,41.2,29.55,ENE,68,0.0,0.0,100,0.08,,RA,0.29,VWS V14.01,2013-04-18 15:59:00,
2013-04-18 12:04:00,41.2,41.2,29.54,East,85,0.0,0.0,100,0.09,,RA,0.30,VWS V14.01,2013-04-18 16:04:00,
2013-04-18 12:09:00,41.5,41.5,29.54,ENE,61,0.0,0.0,100,0.10,,RA,0.31,VWS V14.01,2013-04-18 16:09:00,
2013-04-18 12:14:00,41.5,41.5,29.54,ENE,62,0.0,0.0,100,0.11,,RA,0.32,VWS V14.01,2013-04-18 16:14:00,
2013-04-18 12:19:00,41.8,41.5,29.53,ESE,114,0.0,0.0,99,0.11,,RA,0.33,VWS V14.01,2013-04-18 16:19:00,
2013-04-18 12:24:00,41.9,41.6,29.53,NNE,30,0.0,0.0,99,0.12,,RA,0.34,VWS V14.01,2013-04-18 16:24:00,
2013-04-18 12:29:00,41.9,41.6,29.52,NE,42,0.0,0.0,99,0.11,,RA,0.34,VWS V14.01,2013-04-18 16:29:00,
2013-04-18 12:35:00,41.9,41.6,29.52,NNE,30,0.0,0.0,99,0.11,,RA,0.34,VWS V14.01,2013-04-18 16:35:00,
2013-04-18 12:40:00,41.9,41.6,29.52,ENE,64,4.0,0.0,99,0.12,,RA,0.36,VWS V14.01,2013-04-18 16:40:00,
2013-04-18 12:45:00,41.9,41.6,29.49,ENE,69,0.0,0.0,99,0.14,,RA,0.38,VWS V14.01,2013-04-18 16:45:00,
2013-04-18 12:50:00,41.9,41.6,29.49,NE,55,2.0,0.0,99,0.15,,RA,0.39,VWS V14.01,2013-04-18 16:50:00,
2013-04-18 12:55:00,41.9,41.6,29.49,ENE,68,0.0,0.0,99,0.11,,RA,0.39,VWS V14.01,2013-04-18 16:55:00,
2013-04-18 13:00:00,42.1,41.8,29.47,NE,49,0.0,0.0,99,0.11,,RA,0.40,VWS V14.01,2013-04-18 17:00:00,
2013-04-18 13:05:00,42.2,41.9,29.47,ENE,61,0.0,0.0,99,0.10,,RA,0.40,VWS V14.01,2013-04-18 17:05:00,
2013-04-18 13:10:00,42.2,41.9,29.47,NE,42,0.0,0.0,99,0.10,,RA,0.41,VWS V14.01,2013-04-18 17:10:00,
2013-04-18 13:15:00,42.3,42.0,29.48,NE,48,0.0,0.0,99,0.09,,RA,0.41,VWS V14.01,2013-04-18 17:15:00,
2013-04-18 13:20:00,42.5,42.2,29.48,ESE,102,2.0,0.0,99,0.10,,-RA,0.43,VWS V14.01,2013-04-18 17:20:00,
2013-04-18 13:25:00,42.6,42.3,29.48,SSW,195,0.0,0.0,99,0.10,,-RA,0.44,VWS V14.01,2013-04-18 17:25:00,
2013-04-18 13:30:00,42.8,42.5,29.46,SSE,152,0.0,0.0,99,0.10,,-RA,0.44,VWS V14.01,2013-04-18 17:30:00,
2013-04-18 13:35:00,42.8,42.5,29.46,East,82,1.0,0.0,99,0.11,,-RA,0.45,VWS V14.01,2013-04-18 17:35:00,
2013-04-18 13:40:00,43.2,42.9,29.46,East,86,0.0,0.0,99,0.08,,-RA,0.45,VWS V14.01,2013-04-18 17:40:00,
2013-04-18 13:45:00,43.3,43.0,29.45,East,100,0.0,0.0,99,0.07,,-RA,0.45,VWS V14.01,2013-04-18 17:45:00,
2013-04-18 13:51:00,43.5,43.2,29.45,NE,54,3.0,0.0,99,0.06,,-RA,0.45,VWS V14.01,2013-04-18 17:51:00,
2013-04-18 13:56:00,43.8,43.5,29.45,NE,54,0.0,0.0,99,0.06,,-RA,0.45,VWS V14.01,2013-04-18 17:56:00,
2013-04-18 14:01:00,44.3,44.0,29.43,NNE,18,0.0,0.0,99,0.06,,-RA,0.46,VWS V14.01,2013-04-18 18:01:00,
2013-04-18 14:06:00,44.8,44.8,29.43,ENE,61,0.0,0.0,100,0.06,,-RA,0.46,VWS V14.01,2013-04-18 18:06:00,
2013-04-18 14:11:00,44.9,44.9,29.43,NE,56,0.0,0.0,100,0.05,,-RA,0.46,VWS V14.01,2013-04-18 18:11:00,
2013-04-18 14:16:00,44.9,44.9,29.44,NE,56,0.0,0.0,100,0.05,,-RA,0.46,VWS V14.01,2013-04-18 18:16:00,
2013-04-18 14:22:00,45.8,45.8,29.44,East,96,0.0,0.0,100,0.03,,BKN026,0.46,VWS V14.01,2013-04-18 18:22:00,
2013-04-18 14:27:00,46.0,46.0,29.44,SSE,164,0.0,0.0,100,0.02,,BKN026,0.46,VWS V14.01,2013-04-18 18:27:00,
2013-04-18 14:32:00,46.2,46.2,29.44,South,184,2.0,0.0,100,0.02,,BKN026,0.46,VWS V14.01,2013-04-18 18:32:00,
2013-04-18 14:37:00,46.5,46.5,29.44,South,191,0.0,0.0,100,0.01,,BKN026,0.46,VWS V14.01,2013-04-18 18:37:00,
2013-04-18 14:42:00,46.7,46.7,29.44,South,178,0.0,0.0,100,0.01,,OVC025,0.46,VWS V14.01,2013-04-18 18:42:00,
2013-04-18 14:47:00,47.1,47.1,29.46,SSE,150,0.0,0.0,100,0.01,,OVC025,0.46,VWS V14.01,2013-04-18 18:47:00,
2013-04-18 14:52:00,47.4,47.4,29.46,SSE,168,0.0,0.0,100,0.01,,OVC025,0.46,VWS V14.01,2013-04-18 18:52:00,
2013-04-18 14:57:00,47.4,47.4,29.46,SSE,148,0.0,0.0,100,0.01,,OVC025,0.46,VWS V14.01,2013-04-18 18:57:00,
2013-04-18 15:02:00,47.6,47.6,29.45,SSE,152,0.0,0.0,100,0.00,,OVC015,0.46,VWS V14.01,2013-04-18 19:02:00,
2013-04-18 15:07:00,47.7,47.7,29.45,SSE,151,0.0,0.0,100,0.00,,OVC015,0.46,VWS V14.01,2013-04-18 19:07:00,
2013-04-18 15:12:00,47.9,47.9,29.45,SE,145,0.0,0.0,100,0.00,,OVC015,0.46,VWS V14.01,2013-04-18 19:12:00,
2013-04-18 15:17:00,48.5,48.5,29.44,South,189,0.0,0.0,100,0.00,,OVC015,0.46,VWS V14.01,2013-04-18 19:17:00,
2013-04-18 15:22:00,48.8,48.8,29.44,South,174,0.0,0.0,100,0.00,,OVC070,0.46,VWS V14.01,2013-04-18 19:22:00,
2013-04-18 15:27:00,49.1,49.1,29.44,SE,137,0.0,0.0,100,0.00,,OVC070,0.46,VWS V14.01,2013-04-18 19:27:00,
2013-04-18 15:32:00,49.6,49.6,29.44,SSW,200,0.0,0.0,100,0.00,,OVC070,0.46,VWS V14.01,2013-04-18 19:32:00,
2013-04-18 15:37:00,49.9,49.9,29.44,South,182,0.0,0.0,100,0.00,,OVC070,0.46,VWS V14.01,2013-04-18 19:37:00,
2013-04-18 15:42:00,49.9,49.9,29.44,SSW,196,0.0,0.0,100,0.00,,OVC070,0.46,VWS V14.01,2013-04-18 19:42:00,
2013-04-18 15:47:00,50.1,50.1,29.44,South,171,0.0,0.0,100,0.00,,OVC070,0.46,VWS V14.01,2013-04-18 19:47:00,
2013-04-18 15:52:00,50.2,50.2,29.44,SSW,210,0.0,0.0,100,0.00,,OVC070,0.46,VWS V14.01,2013-04-18 19:52:00,
2013-04-18 15:57:00,50.2,50.2,29.44,SSW,193,0.0,0.0,100,0.00,,OVC070,0.46,VWS V14.01,2013-04-18 19:57:00,
2013-04-18 16:03:00,50.2,49.7,29.44,South,172,0.0,0.0,98,0.00,,OVC008,0.46,VWS V14.01,2013-04-18 20:03:00,
2013-04-18 16:08:00,50.2,49.4,29.44,SW,223,0.0,0.0,97,0.00,,OVC008,0.46,VWS V14.01,2013-04-18 20:08:00,
2013-04-18 16:13:00,50.2,49.4,29.44,SSE,161,0.0,0.0,97,0.00,,OVC008,0.46,VWS V14.01,2013-04-18 20:13:00,
2013-04-18 16:18:00,50.2,49.4,29.45,SSE,147,0.0,0.0,97,0.00,,OVC008,0.46,VWS V14.01,2013-04-18 20:18:00,
2013-04-18 16:23:00,50.2,49.4,29.45,South,191,0.0,0.0,97,0.00,,OVC013,0.46,VWS V14.01,2013-04-18 20:23:00,
2013-04-18 16:28:00,50.4,49.6,29.45,South,171,0.0,0.0,97,0.00,,OVC013,0.46,VWS V14.01,2013-04-18 20:28:00,
2013-04-18 16:33:00,50.5,47.1,29.45,SSW,202,0.0,0.0,88,0.00,,OVC013,0.46,VWS V14.01,2013-04-18 20:33:00,
2013-04-18 16:38:00,50.5,46.8,29.45,SW,215,2.0,0.0,87,0.00,,OVC013,0.46,VWS V14.01,2013-04-18 20:38:00,
2013-04-18 16:43:00,50.5,46.8,29.45,SW,223,0.0,0.0,87,0.00,,OVC010,0.46,VWS V14.01,2013-04-18 20:43:00,
2013-04-18 16:48:00,50.4,46.4,29.44,SW,229,0.0,0.0,86,0.00,,OVC010,0.46,VWS V14.01,2013-04-18 20:48:00,
2013-04-18 16:53:00,50.1,46.4,29.44,SW,232,0.0,0.0,87,0.00,,OVC010,0.46,VWS V14.01,2013-04-18 20:53:00,
2013-04-18 16:58:00,49.6,45.9,29.44,West,280,0.0,0.0,87,0.00,,OVC010,0.46,VWS V14.01,2013-04-18 20:58:00,
2013-04-18 17:03:00,49.2,45.5,29.45,SW,232,0.0,0.0,87,0.00,,OVC008,0.46,VWS V14.01,2013-04-18 21:03:00,
2013-04-18 17:08:00,48.8,45.1,29.45,WSW,237,0.0,0.0,87,0.00,,OVC008,0.46,VWS V14.01,2013-04-18 21:08:00,
2013-04-18 17:13:00,48.2,44.2,29.45,WSW,237,0.0,0.0,86,0.00,,OVC008,0.46,VWS V14.01,2013-04-18 21:13:00,
2013-04-18 17:18:00,48.0,44.0,29.42,WSW,237,0.0,0.0,86,0.00,,OVC008,0.46,VWS V14.01,2013-04-18 21:18:00,
2013-04-18 17:23:00,48.0,44.6,29.42,WSW,237,0.0,0.0,88,0.00,,OVC014,0.46,VWS V14.01,2013-04-18 21:23:00,
2013-04-18 17:28:00,48.0,44.6,29.42,WSW,237,0.0,0.0,88,0.00,,OVC014,0.46,VWS V14.01,2013-04-18 21:28:00,
2013-04-18 17:34:00,48.2,44.8,29.42,WSW,237,0.0,0.0,88,0.00,,OVC014,0.46,VWS V14.01,2013-04-18 21:34:00,
2013-04-18 17:39:00,48.2,44.8,29.42,WSW,237,0.0,0.0,88,0.00,,OVC014,0.46,VWS V14.01,2013-04-18 21:39:00,
2013-04-18 17:44:00,48.0,44.6,29.42,WSW,237,0.0,0.0,88,0.00,,OVC014,0.46,VWS V14.01,2013-04-18 21:44:00,
2013-04-18 17:49:00,47.7,44.6,29.45,WSW,237,0.0,0.0,89,0.00,,OVC014,0.46,VWS V14.01,2013-04-18 21:49:00,
2013-04-18 17:54:00,47.7,44.6,29.45,WSW,239,0.0,0.0,89,0.00,,OVC014,0.46,VWS V14.01,2013-04-18 21:54:00,
2013-04-18 17:59:00,47.4,44.3,29.45,WSW,239,0.0,0.0,89,0.00,,OVC014,0.46,VWS V14.01,2013-04-18 21:59:00,
2013-04-18 18:04:00,47.0,43.6,29.46,North,0,0.0,0.0,88,0.00,,OVC014,0.46,VWS V14.01,2013-04-18 22:04:00,
2013-04-18 18:09:00,46.4,42.8,29.46,North,0,0.0,0.0,87,0.00,,OVC014,0.46,VWS V14.01,2013-04-18 22:09:00,
2013-04-18 18:14:00,45.5,42.2,29.46,North,0,0.0,0.0,88,0.00,,OVC014,0.46,VWS V14.01,2013-04-18 22:14:00,
2013-04-18 18:19:00,45.1,41.8,29.45,North,359,0.0,0.0,88,0.00,,OVC014,0.46,VWS V14.01,2013-04-18 22:19:00,
2013-04-18 18:24:00,44.8,41.5,29.45,North,357,0.0,0.0,88,0.00,,OVC010,0.46,VWS V14.01,2013-04-18 22:24:00,
2013-04-18 18:29:00,44.5,41.2,29.45,North,357,0.0,0.0,88,0.00,,OVC010,0.46,VWS V14.01,2013-04-18 22:29:00,
2013-04-18 18:34:00,44.3,41.0,29.44,NNW,342,0.0,0.0,88,0.00,,OVC010,0.46,VWS V14.01,2013-04-18 22:34:00,
2013-04-18 18:39:00,44.3,41.0,29.44,NNW,342,0.0,0.0,88,0.00,,OVC010,0.46,VWS V14.01,2013-04-18 22:39:00,
2013-04-18 18:44:00,44.3,41.8,29.44,NNW,347,0.0,0.0,91,0.00,,OVC010,0.46,VWS V14.01,2013-04-18 22:44:00,
2013-04-18 18:49:00,44.5,42.3,29.44,NW,313,0.0,0.0,92,0.00,,OVC010,0.46,VWS V14.01,2013-04-18 22:49:00,
2013-04-18 18:55:00,44.5,42.3,29.44,North,0,0.0,0.0,92,0.00,,OVC010,0.46,VWS V14.01,2013-04-18 22:55:00,
2013-04-18 19:00:00,44.5,42.6,29.44,North,0,0.0,0.0,93,0.00,,OVC010,0.46,VWS V14.01,2013-04-18 23:00:00,
2013-04-18 19:05:00,44.3,42.7,29.44,North,0,0.0,0.0,94,0.00,,OVC010,0.46,VWS V14.01,2013-04-18 23:05:00,
2013-04-18 19:10:00,44.2,42.6,29.44,North,1,0.0,0.0,94,0.00,,OVC010,0.46,VWS V14.01,2013-04-18 23:10:00,
2013-04-18 19:15:00,43.9,42.8,29.44,North,6,0.0,0.0,96,0.00,,OVC010,0.46,VWS V14.01,2013-04-18 23:15:00,
2013-04-18 19:20:00,43.8,42.7,29.44,North,6,0.0,0.0,96,0.00,,,0.46,VWS V14.01,2013-04-18 23:20:00,
2013-04-18 19:25:00,43.5,42.4,29.44,North,6,0.0,0.0,96,0.00,,,0.46,VWS V14.01,2013-04-18 23:25:00,
2013-04-18 19:30:00,43.5,42.4,29.44,North,6,0.0,0.0,96,0.00,,,0.46,VWS V14.01,2013-04-18 23:30:00,
2013-04-18 19:35:00,43.5,42.4,29.44,North,6,0.0,0.0,96,0.00,,,0.46,VWS V14.01,2013-04-18 23:35:00,
2013-04-18 19:40:00,43.2,42.1,29.44,North,6,0.0,0.0,96,0.00,,,0.46,VWS V14.01,2013-04-18 23:40:00,
2013-04-18 19:45:00,43.2,42.1,29.44,North,6,0.0,0.0,96,0.00,,,0.46,VWS V14.01,2013-04-18 23:45:00,
2013-04-18 19:50:00,43.2,42.1,29.44,NNE,32,0.0,0.0,96,0.00,,,0.46,VWS V14.01,2013-04-18 23:50:00,
2013-04-18 19:55:00,43.2,42.1,29.44,NNE,32,0.0,0.0,96,0.00,,,0.46,VWS V14.01,2013-04-18 23:55:00,
2013-04-18 20:00:00,43.2,42.1,29.42,NNE,32,0.0,0.0,96,0.00,,,0.46,VWS V14.01,2013-04-19 00:00:00,
2013-04-18 20:05:00,43.2,42.1,29.42,NE,47,0.0,0.0,96,0.00,,,0.46,VWS V14.01,2013-04-19 00:05:00,
2013-04-18 20:10:00,43.8,42.7,29.42,NE,47,0.0,0.0,96,0.00,,,0.46,VWS V14.01,2013-04-19 00:10:00,
2013-04-18 20:16:00,43.8,42.7,29.41,ENE,66,0.0,0.0,96,0.00,,,0.46,VWS V14.01,2013-04-19 00:16:00,
2013-04-18 20:21:00,43.8,42.7,29.41,ENE,66,0.0,0.0,96,0.00,,,0.46,VWS V14.01,2013-04-19 00:21:00,
2013-04-18 20:26:00,43.8,43.0,29.41,ENE,65,0.0,0.0,97,0.00,,,0.46,VWS V14.01,2013-04-19 00:26:00,
2013-04-18 20:31:00,43.8,43.0,29.41,ENE,65,0.0,0.0,97,0.00,,,0.46,VWS V14.01,2013-04-19 00:31:00,
2013-04-18 20:36:00,43.8,43.0,29.41,ENE,71,0.0,0.0,97,0.00,,,0.46,VWS V14.01,2013-04-19 00:36:00,
2013-04-18 20:41:00,43.8,43.0,29.41,NNE,23,0.0,0.0,97,0.00,,,0.46,VWS V14.01,2013-04-19 00:41:00,
2013-04-18 20:46:00,43.8,43.0,29.41,NNE,23,0.0,0.0,97,0.00,,,0.46,VWS V14.01,2013-04-19 00:46:00,
2013-04-18 20:51:00,43.8,43.0,29.41,NNE,23,0.0,0.0,97,0.00,,,0.46,VWS V14.01,2013-04-19 00:51:00,
2013-04-18 20:56:00,44.5,43.7,29.41,NNE,23,0.0,0.0,97,0.00,,,0.46,VWS V14.01,2013-04-19 00:56:00,
2013-04-18 21:01:00,44.6,43.5,29.39,NNE,23,0.0,0.0,96,0.00,,,0.46,VWS V14.01,2013-04-19 01:01:00,
2013-04-18 21:06:00,44.8,44.0,29.39,ENE,66,0.0,0.0,97,0.00,,,0.46,VWS V14.01,2013-04-19 01:06:00,
2013-04-18 21:11:00,44.8,44.0,29.39,NE,56,0.0,0.0,97,0.00,,,0.46,VWS V14.01,2013-04-19 01:11:00,
2013-04-18 21:16:00,45.1,44.3,29.38,ENE,73,0.0,0.0,97,0.00,,,0.46,VWS V14.01,2013-04-19 01:16:00,
2013-04-18 21:21:00,45.4,44.6,29.38,ENE,73,5.0,0.0,97,0.00,,,0.46,VWS V14.01,2013-04-19 01:21:00,
2013-04-18 21:26:00,45.5,44.7,29.38,East,79,3.0,0.0,97,0.00,,,0.46,VWS V14.01,2013-04-19 01:26:00,
2013-04-18 21:31:00,45.5,44.7,29.36,ENE,66,0.0,0.0,97,0.00,,,0.46,VWS V14.01,2013-04-19 01:31:00,
2013-04-18 21:36:00,45.5,45.0,29.36,SE,145,0.0,0.0,98,0.00,,,0.46,VWS V14.01,2013-04-19 01:36:00,
2013-04-18 21:41:00,45.5,45.0,29.36,ESE,116,0.0,0.0,98,0.00,,,0.46,VWS V14.01,2013-04-19 01:41:00,
2013-04-18 21:47:00,45.7,45.2,29.37,East,80,0.0,0.0,98,0.00,,,0.46,VWS V14.01,2013-04-19 01:47:00,
2013-04-18 21:52:00,45.5,45.0,29.37,East,80,0.0,0.0,98,0.00,,,0.46,VWS V14.01,2013-04-19 01:52:00,
2013-04-18 21:57:00,45.7,45.2,29.37,East,90,0.0,0.0,98,0.00,,,0.46,VWS V14.01,2013-04-19 01:57:00,
2013-04-18 22:02:00,45.8,45.3,29.35,ESE,112,0.0,0.0,98,0.00,,,0.46,VWS V14.01,2013-04-19 02:02:00,
2013-04-18 22:07:00,46.0,45.5,29.35,ESE,114,2.0,0.0,98,0.00,,,0.46,VWS V14.01,2013-04-19 02:07:00,
2013-04-18 22:12:00,46.0,45.5,29.35,East,90,0.0,0.0,98,0.00,,,0.46,VWS V14.01,2013-04-19 02:12:00,
2013-04-18 22:17:00,46.2,45.7,29.34,NNE,31,0.0,0.0,98,0.00,,,0.46,VWS V14.01,2013-04-19 02:17:00,
2013-04-18 22:22:00,46.2,45.7,29.34,NE,34,0.0,0.0,98,0.00,,OVC003,0.46,VWS V14.01,2013-04-19 02:22:00,
2013-04-18 22:27:00,46.4,45.9,29.34,ENE,65,0.0,0.0,98,0.00,,OVC003,0.46,VWS V14.01,2013-04-19 02:27:00,
2013-04-18 22:32:00,46.7,46.2,29.33,ESE,123,0.0,0.0,98,0.00,,OVC003,0.46,VWS V14.01,2013-04-19 02:32:00,
2013-04-18 22:37:00,46.8,46.3,29.33,ENE,59,0.0,0.0,98,0.00,,OVC003,0.46,VWS V14.01,2013-04-19 02:37:00,
2013-04-18 22:42:00,47.0,46.5,29.33,NE,47,0.0,0.0,98,0.00,,OVC003,0.46,VWS V14.01,2013-04-19 02:42:00,
2013-04-18 22:47:00,47.1,46.6,29.32,NE,48,0.0,0.0,98,0.00,,OVC003,0.46,VWS V14.01,2013-04-19 02:47:00,
2013-04-18 22:52:00,47.0,46.5,29.32,ENE,65,0.0,0.0,98,0.00,,OVC003,0.46,VWS V14.01,2013-04-19 02:52:00,
2013-04-18 22:57:00,47.3,46.8,29.32,SE,140,0.0,0.0,98,0.00,,OVC003,0.46,VWS V14.01,2013-04-19 02:57:00,
2013-04-18 23:02:00,47.7,47.2,29.33,ENE,71,0.0,0.0,98,0.00,,OVC055,0.00,VWS V14.01,2013-04-19 03:02:00,
2013-04-18 23:07:00,47.7,47.2,29.33,East,88,0.0,0.0,98,0.00,,OVC055,0.00,VWS V14.01,2013-04-19 03:07:00,
2013-04-18 23:12:00,47.7,47.2,29.33,East,89,0.0,0.0,98,0.00,,OVC055,0.00,VWS V14.01,2013-04-19 03:12:00,
2013-04-18 23:18:00,48.5,48.0,29.30,NE,38,0.0,0.0,98,0.00,,OVC055,0.00,VWS V14.01,2013-04-19 03:18:00,
2013-04-18 23:23:00,48.5,48.0,29.30,East,79,5.0,0.0,98,0.00,,BKN045,0.00,VWS V14.01,2013-04-19 03:23:00,
2013-04-18 23:28:00,48.6,48.1,29.30,East,85,0.0,0.0,98,0.00,,BKN045,0.00,VWS V14.01,2013-04-19 03:28:00,
2013-04-18 23:33:00,48.8,48.3,29.27,NE,44,0.0,0.0,98,0.00,,BKN045,0.00,VWS V14.01,2013-04-19 03:33:00,
2013-04-18 23:38:00,48.9,48.4,29.27,SE,137,0.0,0.0,98,0.00,,BKN045,0.00,VWS V14.01,2013-04-19 03:38:00,
2013-04-18 23:43:00,49.1,48.6,29.27,ENE,65,0.0,0.0,98,0.00,,BKN110,0.00,VWS V14.01,2013-04-19 03:43:00,
2013-04-18 23:48:00,49.2,48.7,29.25,East,89,0.0,0.0,98,0.00,,BKN110,0.00,VWS V14.01,2013-04-19 03:48:00,
2013-04-18 23:53:00,49.5,49.0,29.25,SSE,165,0.0,0.0,98,0.00,,BKN110,0.00,VWS V14.01,2013-04-19 03:53:00,
2013-04-18 23:58:00,49.5,49.0,29.25,ESE,119,0.0,0.0,98,0.00,,BKN110,0.00,VWS V14.01,2013-04-19 03:58:00,